Wetterdaten: aktuell Mittwoch, 11.12.2019 20:16
Datum Zeit Temp. 2m Temp. 5cm Temp. Innen Feuchte 2m Feuchte Inne Luftdruck Regen Wind Richtung Richtung Taupunkt Windchill Windben
11.12.2019 20:16 -3,8 C -5,0 C 21,8 C 75 % 59 % 1009,8 hPa 0,0 l/m 3,1 km/h (1 Bft) N-NO 22 -7,6 C -3,8 C 2,9 km/h (1 Bft)
11.12.2019 20:14 -3,9 C -5,0 C 21,8 C 75 % 59 % 1009,8 hPa 0,0 l/m 3,1 km/h (1 Bft) NO 45 -7,7 C -3,9 C 4,1 km/h (1 Bft)
11.12.2019 20:12 -3,9 C -5,0 C 21,8 C 75 % 59 % 1009,8 hPa 0,0 l/m 2,7 km/h (1 Bft) NO 45 -7,7 C -3,9 C 4,3 km/h (1 Bft)
11.12.2019 20:10 -3,8 C -5,1 C 21,8 C 75 % 59 % 1009,8 hPa 0,0 l/m 1,9 km/h (1 Bft) NO 45 -7,6 C -3,8 C 4,3 km/h (1 Bft)
11.12.2019 20:08 -3,8 C -5,1 C 21,8 C 75 % 59 % 1009,8 hPa 0,0 l/m 1,2 km/h (1 Bft) N-NO 22 -7,6 C -3,8 C 4,6 km/h (1 Bft)
11.12.2019 20:06 -3,7 C -5,3 C 21,8 C 75 % 59 % 1009,8 hPa 0,0 l/m 0,5 km/h (0 Bft) N-NO 22 -7,5 C -3,7 C 4,6 km/h (1 Bft)
11.12.2019 20:04 -3,8 C -5,3 C 21,8 C 75 % 59 % 1009,8 hPa 0,0 l/m 0,0 km/h (0 Bft) N-NO 22 -7,6 C -3,8 C 2,4 km/h (1 Bft)
11.12.2019 20:02 -3,8 C -5,3 C 21,8 C 75 % 59 % 1009,8 hPa 0,0 l/m 0,0 km/h (0 Bft) N-NO 22 -7,6 C -3,8 C 0,0 km/h (0 Bft)
11.12.2019 20:00 -3,7 C -5,1 C 21,8 C 75 % 59 % 1009,8 hPa 0,0 l/m 0,0 km/h (0 Bft) W 270 -7,5 C -3,7 C 0,0 km/h (0 Bft)
11.12.2019 19:58 -3,7 C -5,1 C 21,8 C 75 % 59 % 1009,8 hPa 0,0 l/m 0,0 km/h (0 Bft) W 270 -7,5 C -3,7 C 0,0 km/h (0 Bft)
11.12.2019 19:56 -3,7 C -5,1 C 21,8 C 75 % 59 % 1010,0 hPa 0,0 l/m 0,0 km/h (0 Bft) W 270 -7,5 C -3,7 C 0,0 km/h (0 Bft)
11.12.2019 19:54 -3,5 C -5,1 C 21,7 C 75 % 59 % 1010,0 hPa 0,0 l/m 0,0 km/h (0 Bft) S 180 -7,3 C -3,5 C 0,0 km/h (0 Bft)
11.12.2019 19:52 -3,5 C -5,1 C 21,8 C 75 % 59 % 1010,0 hPa 0,0 l/m 1,0 km/h (0 Bft) S-SO 157 -7,3 C -3,5 C 0,0 km/h (0 Bft)
11.12.2019 19:50 -3,5 C -5,0 C 21,7 C 75 % 59 % 1010,0 hPa 0,0 l/m 1,7 km/h (1 Bft) SO 135 -7,3 C -3,5 C 0,0 km/h (0 Bft)
11.12.2019 19:48 -3,4 C -4,7 C 21,7 C 75 % 59 % 1010,0 hPa 0,0 l/m 2,9 km/h (1 Bft) O-SO 112 -7,2 C -3,4 C 0,0 km/h (0 Bft)
11.12.2019 19:46 -3,4 C -4,7 C 21,7 C 75 % 59 % 1010,0 hPa 0,0 l/m 3,6 km/h (1 Bft) O-SO 112 -7,2 C -3,4 C 2,7 km/h (1 Bft)
11.12.2019 19:44 -3,4 C -4,6 C 21,7 C 75 % 59 % 1010,0 hPa 0,0 l/m 4,8 km/h (1 Bft) O-NO 67 -7,2 C -3,4 C 3,6 km/h (1 Bft)
11.12.2019 19:42 -3,3 C -4,5 C 21,7 C 75 % 58 % 1010,0 hPa 0,0 l/m 5,8 km/h (2 Bft) O 90 -7,1 C -3,3 C 4,3 km/h (1 Bft)
11.12.2019 19:40 -3,3 C -4,5 C 21,7 C 75 % 58 % 1010,0 hPa 0,0 l/m 6,5 km/h (2 Bft) O-NO 67 -7,1 C -3,4 C 7,2 km/h (2 Bft)
11.12.2019 19:38 -3,3 C -4,3 C 21,7 C 75 % 58 % 1010,0 hPa 0,0 l/m 7,0 km/h (2 Bft) O-NO 67 -7,1 C -4,0 C 7,2 km/h (2 Bft)
11.12.2019 19:36 -3,1 C -4,3 C 21,7 C 75 % 58 % 1010,2 hPa 0,0 l/m 7,2 km/h (2 Bft) O-NO 67 -6,9 C -4,0 C 6,5 km/h (2 Bft)
11.12.2019 19:34 -3,1 C -4,2 C 21,7 C 75 % 58 % 1010,2 hPa 0,0 l/m 8,0 km/h (2 Bft) NO 45 -6,9 C -4,9 C 9,2 km/h (2 Bft)
11.12.2019 19:32 -3,1 C -4,2 C 21,7 C 75 % 58 % 1010,2 hPa 0,0 l/m 8,2 km/h (2 Bft) N-NO 22 -6,9 C -5,1 C 9,2 km/h (2 Bft)
11.12.2019 19:30 -3,1 C -4,2 C 21,7 C 75 % 58 % 1010,2 hPa 0,0 l/m 8,2 km/h (2 Bft) NO 45 -6,9 C -5,1 C 9,2 km/h (2 Bft)
11.12.2019 19:28 -3,1 C -4,2 C 21,7 C 75 % 58 % 1010,2 hPa 0,0 l/m 8,4 km/h (2 Bft) NO 45 -6,9 C -5,3 C 9,2 km/h (2 Bft)
11.12.2019 19:26 -3,1 C -4,2 C 21,7 C 75 % 58 % 1010,2 hPa 0,0 l/m 8,2 km/h (2 Bft) NO 45 -6,9 C -5,1 C 8,9 km/h (2 Bft)
11.12.2019 19:24 -3,1 C -4,1 C 21,7 C 75 % 58 % 1010,2 hPa 0,0 l/m 8,7 km/h (2 Bft) NO 45 -6,9 C -5,6 C 8,4 km/h (2 Bft)
11.12.2019 19:22 -3,1 C -4,1 C 21,7 C 75 % 58 % 1010,2 hPa 0,0 l/m 8,7 km/h (2 Bft) NO 45 -6,9 C -5,6 C 8,4 km/h (2 Bft)
11.12.2019 19:20 -3,2 C -4,1 C 21,7 C 75 % 58 % 1010,2 hPa 0,0 l/m 8,7 km/h (2 Bft) O-NO 67 -7,0 C -5,7 C 10,1 km/h (2 Bft)
11.12.2019 19:18 -3,2 C -4,1 C 21,7 C 75 % 58 % 1010,2 hPa 0,0 l/m 8,9 km/h (2 Bft) NO 45 -7,0 C -5,9 C 11,1 km/h (2 Bft)
11.12.2019 19:16 -3,0 C -3,9 C 21,7 C 74 % 58 % 1010,2 hPa 0,0 l/m 9,2 km/h (2 Bft) NO 45 -7,0 C -6,0 C 11,1 km/h (2 Bft)
11.12.2019 19:14 -3,0 C -3,9 C 21,7 C 74 % 58 % 1010,2 hPa 0,0 l/m 8,7 km/h (2 Bft) NO 45 -7,0 C -5,5 C 9,9 km/h (2 Bft)
11.12.2019 19:12 -3,0 C -3,9 C 21,7 C 74 % 58 % 1010,2 hPa 0,0 l/m 8,9 km/h (2 Bft) N-NO 22 -7,0 C -5,7 C 9,2 km/h (2 Bft)
11.12.2019 19:10 -3,0 C -4,1 C 21,7 C 74 % 58 % 1010,2 hPa 0,0 l/m 9,2 km/h (2 Bft) N-NO 22 -7,0 C -6,0 C 11,6 km/h (2 Bft)
11.12.2019 19:08 -3,0 C -4,1 C 21,7 C 74 % 58 % 1010,2 hPa 0,0 l/m 8,9 km/h (2 Bft) NO 45 -7,0 C -5,7 C 11,6 km/h (2 Bft)
11.12.2019 19:06 -3,2 C -4,1 C 21,7 C 74 % 58 % 1010,2 hPa 0,0 l/m 9,2 km/h (2 Bft) N-NO 22 -7,2 C -6,2 C 9,7 km/h (2 Bft)
11.12.2019 19:04 -3,2 C -3,9 C 21,7 C 74 % 58 % 1010,2 hPa 0,0 l/m 9,4 km/h (2 Bft) NO 45 -7,2 C -6,4 C 9,7 km/h (2 Bft)
11.12.2019 19:02 -3,0 C -3,9 C 21,7 C 74 % 58 % 1010,2 hPa 0,0 l/m 9,7 km/h (2 Bft) N-NO 22 -7,0 C -6,5 C 10,1 km/h (2 Bft)
11.12.2019 19:00 -3,0 C -3,9 C 21,7 C 74 % 58 % 1010,2 hPa 0,0 l/m 9,7 km/h (2 Bft) NO 45 -7,0 C -6,5 C 10,1 km/h (2 Bft)
11.12.2019 18:58 -3,0 C -3,8 C 21,7 C 74 % 58 % 1010,2 hPa 0,0 l/m 9,9 km/h (2 Bft) NO 45 -7,0 C -6,7 C 9,9 km/h (2 Bft)
11.12.2019 18:56 -3,0 C -3,8 C 21,7 C 74 % 58 % 1010,4 hPa 0,0 l/m 9,9 km/h (2 Bft) O-NO 67 -7,0 C -6,7 C 11,8 km/h (2 Bft)
11.12.2019 18:54 -3,0 C -3,8 C 21,7 C 73 % 58 % 1010,4 hPa 0,0 l/m 9,7 km/h (2 Bft) NO 45 -7,1 C -6,5 C 11,8 km/h (2 Bft)
11.12.2019 18:52 -3,0 C -3,9 C 21,7 C 73 % 58 % 1010,4 hPa 0,0 l/m 9,4 km/h (2 Bft) NO 45 -7,1 C -6,2 C 10,1 km/h (2 Bft)
11.12.2019 18:50 -3,0 C -4,1 C 21,7 C 73 % 58 % 1010,4 hPa 0,0 l/m 9,4 km/h (2 Bft) NO 45 -7,1 C -6,2 C 10,9 km/h (2 Bft)
11.12.2019 18:48 -3,0 C -3,9 C 21,7 C 73 % 58 % 1010,4 hPa 0,0 l/m 9,4 km/h (2 Bft) NO 45 -7,1 C -6,2 C 11,1 km/h (2 Bft)
11.12.2019 18:46 -2,9 C -3,9 C 21,7 C 73 % 58 % 1010,4 hPa 0,0 l/m 9,2 km/h (2 Bft) NO 45 -7,0 C -5,9 C 11,1 km/h (2 Bft)
11.12.2019 18:44 -2,9 C -3,9 C 21,7 C 73 % 58 % 1010,4 hPa 0,0 l/m 8,9 km/h (2 Bft) NO 45 -7,0 C -5,6 C 10,1 km/h (2 Bft)
11.12.2019 18:42 -2,9 C -3,9 C 21,7 C 73 % 58 % 1010,4 hPa 0,0 l/m 8,9 km/h (2 Bft) NO 45 -7,0 C -5,6 C 10,9 km/h (2 Bft)
11.12.2019 18:40 -2,9 C -3,9 C 21,7 C 73 % 59 % 1010,4 hPa 0,0 l/m 8,9 km/h (2 Bft) NO 45 -7,0 C -5,6 C 10,9 km/h (2 Bft)
11.12.2019 18:38 -2,9 C -3,9 C 21,7 C 73 % 58 % 1010,4 hPa 0,0 l/m 8,9 km/h (2 Bft) NO 45 -7,0 C -5,6 C 10,1 km/h (2 Bft)
11.12.2019 18:36 -2,9 C -3,9 C 21,7 C 73 % 58 % 1010,4 hPa 0,0 l/m 8,7 km/h (2 Bft) NO 45 -7,0 C -5,4 C 10,1 km/h (2 Bft)
11.12.2019 18:34 -2,9 C -3,9 C 21,7 C 73 % 58 % 1010,4 hPa 0,0 l/m 8,7 km/h (2 Bft) NO 45 -7,0 C -5,4 C 9,9 km/h (2 Bft)
11.12.2019 18:32 -2,9 C -3,9 C 21,7 C 72 % 58 % 1010,4 hPa 0,0 l/m 8,2 km/h (2 Bft) NO 45 -7,2 C -4,9 C 10,6 km/h (2 Bft)
11.12.2019 18:30 -2,8 C -4,1 C 21,7 C 72 % 58 % 1010,4 hPa 0,0 l/m 7,7 km/h (2 Bft) NO 45 -7,1 C -4,3 C 10,6 km/h (2 Bft)
11.12.2019 18:28 -2,8 C -4,1 C 21,7 C 72 % 58 % 1010,4 hPa 0,0 l/m 7,2 km/h (2 Bft) NO 45 -7,1 C -3,7 C 10,6 km/h (2 Bft)
11.12.2019 18:26 -2,8 C -4,1 C 21,7 C 72 % 58 % 1010,4 hPa 0,0 l/m 7,0 km/h (2 Bft) O-NO 67 -7,1 C -3,5 C 9,2 km/h (2 Bft)
11.12.2019 18:24 -2,8 C -4,2 C 21,7 C 72 % 58 % 1010,4 hPa 0,0 l/m 7,0 km/h (2 Bft) O 90 -7,1 C -3,5 C 9,2 km/h (2 Bft)
11.12.2019 18:22 -2,8 C -4,2 C 21,7 C 72 % 58 % 1010,4 hPa 0,0 l/m 7,0 km/h (2 Bft) NO 45 -7,1 C -3,5 C 7,2 km/h (2 Bft)
11.12.2019 18:20 -2,8 C -4,2 C 21,7 C 72 % 58 % 1010,4 hPa 0,0 l/m 7,2 km/h (2 Bft) NO 45 -7,1 C -3,7 C 7,5 km/h (2 Bft)
11.12.2019 18:18 -2,6 C -4,1 C 21,7 C 72 % 58 % 1010,4 hPa 0,0 l/m 7,5 km/h (2 Bft) O-NO 67 -6,9 C -3,8 C 8,9 km/h (2 Bft)
11.12.2019 18:16 -2,6 C -3,9 C 21,7 C 72 % 58 % 1010,4 hPa 0,0 l/m 7,5 km/h (2 Bft) NO 45 -6,9 C -3,8 C 8,9 km/h (2 Bft)
11.12.2019 18:14 -2,6 C -3,9 C 21,7 C 72 % 58 % 1010,4 hPa 0,0 l/m 7,2 km/h (2 Bft) O-NO 67 -6,9 C -3,5 C 8,7 km/h (2 Bft)
11.12.2019 18:12 -2,5 C -3,9 C 21,7 C 72 % 58 % 1010,4 hPa 0,0 l/m 7,2 km/h (2 Bft) NO 45 -6,8 C -3,4 C 8,9 km/h (2 Bft)
11.12.2019 18:10 -2,5 C -3,8 C 21,7 C 72 % 58 % 1010,4 hPa 0,0 l/m 7,5 km/h (2 Bft) NO 45 -6,8 C -3,7 C 8,9 km/h (2 Bft)
11.12.2019 18:08 -2,4 C -3,8 C 21,7 C 72 % 58 % 1010,4 hPa 0,0 l/m 7,7 km/h (2 Bft) O-NO 67 -6,7 C -3,8 C 7,2 km/h (2 Bft)
11.12.2019 18:06 -2,4 C -3,8 C 21,7 C 72 % 58 % 1010,4 hPa 0,0 l/m 8,0 km/h (2 Bft) NO 45 -6,7 C -4,2 C 7,2 km/h (2 Bft)
11.12.2019 18:04 -2,4 C -3,8 C 21,7 C 72 % 58 % 1010,4 hPa 0,0 l/m 8,0 km/h (2 Bft) O-NO 67 -6,7 C -4,2 C 7,2 km/h (2 Bft)
11.12.2019 18:02 -2,4 C -3,8 C 21,7 C 72 % 58 % 1010,4 hPa 0,0 l/m 8,0 km/h (2 Bft) O 90 -6,7 C -4,2 C 8,4 km/h (2 Bft)
11.12.2019 18:00 -2,4 C -3,8 C 21,7 C 72 % 58 % 1010,4 hPa 0,0 l/m 8,2 km/h (2 Bft) O-NO 67 -6,7 C -4,4 C 8,9 km/h (2 Bft)
11.12.2019 17:58 -2,4 C -3,7 C 21,7 C 72 % 58 % 1010,4 hPa 0,0 l/m 8,2 km/h (2 Bft) NO 45 -6,7 C -4,4 C 8,9 km/h (2 Bft)
11.12.2019 17:56 -2,2 C -3,7 C 21,7 C 71 % 58 % 1010,5 hPa 0,0 l/m 8,0 km/h (2 Bft) NO 45 -6,7 C -4,0 C 8,4 km/h (2 Bft)
11.12.2019 17:54 -2,2 C -3,7 C 21,7 C 71 % 58 % 1010,5 hPa 0,0 l/m 8,0 km/h (2 Bft) O-NO 67 -6,7 C -4,0 C 9,2 km/h (2 Bft)
11.12.2019 17:52 -2,2 C -3,5 C 21,7 C 71 % 58 % 1010,5 hPa 0,0 l/m 8,4 km/h (2 Bft) NO 45 -6,7 C -4,4 C 9,9 km/h (2 Bft)
11.12.2019 17:50 -2,2 C -3,7 C 21,7 C 71 % 58 % 1010,5 hPa 0,0 l/m 8,4 km/h (2 Bft) NO 45 -6,7 C -4,4 C 9,9 km/h (2 Bft)
11.12.2019 17:48 -2,2 C -3,8 C 21,7 C 71 % 58 % 1010,5 hPa 0,0 l/m 8,4 km/h (2 Bft) N-NO 22 -6,7 C -4,4 C 8,9 km/h (2 Bft)
11.12.2019 17:46 -2,2 C -3,7 C 21,7 C 70 % 58 % 1010,5 hPa 0,0 l/m 8,7 km/h (2 Bft) NO 45 -6,9 C -4,7 C 8,4 km/h (2 Bft)
11.12.2019 17:44 -2,2 C -3,7 C 21,7 C 70 % 58 % 1010,5 hPa 0,0 l/m 8,7 km/h (2 Bft) NO 45 -6,9 C -4,7 C 9,9 km/h (2 Bft)
11.12.2019 17:42 -2,2 C -3,8 C 21,7 C 70 % 58 % 1010,5 hPa 0,0 l/m 8,4 km/h (2 Bft) NO 45 -6,9 C -4,4 C 9,9 km/h (2 Bft)
11.12.2019 17:40 -2,1 C -3,8 C 21,7 C 70 % 58 % 1010,5 hPa 0,0 l/m 8,0 km/h (2 Bft) NO 45 -6,8 C -3,9 C 9,9 km/h (2 Bft)
11.12.2019 17:38 -2,1 C -3,7 C 21,7 C 70 % 58 % 1010,5 hPa 0,0 l/m 7,5 km/h (2 Bft) NO 45 -6,8 C -3,3 C 9,2 km/h (2 Bft)
11.12.2019 17:36 -2,0 C -3,8 C 21,7 C 70 % 58 % 1010,8 hPa 0,0 l/m 7,2 km/h (2 Bft) N-NO 22 -6,7 C -2,9 C 9,7 km/h (2 Bft)
11.12.2019 17:34 -2,0 C -3,8 C 21,7 C 70 % 58 % 1010,8 hPa 0,0 l/m 6,8 km/h (2 Bft) NO 45 -6,7 C -2,4 C 9,7 km/h (2 Bft)
11.12.2019 17:32 -1,9 C -3,8 C 21,8 C 70 % 58 % 1010,8 hPa 0,0 l/m 6,5 km/h (2 Bft) NO 45 -6,6 C -2,0 C 7,5 km/h (2 Bft)
11.12.2019 17:30 -1,9 C -3,7 C 21,8 C 70 % 58 % 1010,8 hPa 0,0 l/m 6,0 km/h (2 Bft) NO 45 -6,6 C -1,9 C 6,0 km/h (2 Bft)
11.12.2019 17:28 -1,9 C -3,7 C 21,7 C 69 % 58 % 1010,8 hPa 0,0 l/m 6,3 km/h (2 Bft) NO 45 -6,8 C -1,9 C 8,9 km/h (2 Bft)
11.12.2019 17:26 -1,9 C -3,5 C 21,7 C 69 % 58 % 1010,8 hPa 0,0 l/m 6,5 km/h (2 Bft) O-NO 67 -6,8 C -2,0 C 8,9 km/h (2 Bft)
11.12.2019 17:24 -1,9 C -3,9 C 21,8 C 69 % 58 % 1010,8 hPa 0,0 l/m 6,8 km/h (2 Bft) NO 45 -6,8 C -2,3 C 7,2 km/h (2 Bft)
11.12.2019 17:22 -1,9 C -3,9 C 21,7 C 69 % 58 % 1010,8 hPa 0,0 l/m 7,0 km/h (2 Bft) NO 45 -6,8 C -2,6 C 6,8 km/h (2 Bft)
11.12.2019 17:20 -1,9 C -3,8 C 21,8 C 69 % 58 % 1010,8 hPa 0,0 l/m 7,0 km/h (2 Bft) O-NO 67 -6,8 C -2,6 C 6,8 km/h (2 Bft)
11.12.2019 17:18 -1,9 C -3,7 C 21,7 C 69 % 58 % 1010,8 hPa 0,0 l/m 7,2 km/h (2 Bft) NO 45 -6,8 C -2,8 C 8,2 km/h (2 Bft)
11.12.2019 17:16 -1,9 C -3,7 C 21,8 C 69 % 58 % 1011,0 hPa 0,0 l/m 7,2 km/h (2 Bft) NO 45 -6,8 C -2,8 C 8,4 km/h (2 Bft)
11.12.2019 17:14 -1,7 C -3,7 C 21,7 C 69 % 58 % 1011,0 hPa 0,0 l/m 7,0 km/h (2 Bft) NO 45 -6,6 C -2,4 C 8,4 km/h (2 Bft)
11.12.2019 17:12 -1,7 C -3,7 C 21,8 C 69 % 58 % 1011,0 hPa 0,0 l/m 6,3 km/h (2 Bft) NO 45 -6,6 C -1,7 C 8,0 km/h (2 Bft)
11.12.2019 17:10 -1,6 C -3,7 C 21,8 C 69 % 58 % 1011,0 hPa 0,0 l/m 6,3 km/h (2 Bft) NO 45 -6,5 C -1,6 C 6,8 km/h (2 Bft)
11.12.2019 17:08 -1,6 C -3,7 C 21,8 C 69 % 58 % 1011,0 hPa 0,0 l/m 6,3 km/h (2 Bft) NO 45 -6,5 C -1,6 C 7,0 km/h (2 Bft)
11.12.2019 17:06 -1,6 C -3,7 C 21,7 C 68 % 58 % 1011,0 hPa 0,0 l/m 6,5 km/h (2 Bft) NO 45 -6,7 C -1,7 C 7,0 km/h (2 Bft)
11.12.2019 17:04 -1,5 C -3,7 C 21,8 C 68 % 58 % 1011,0 hPa 0,0 l/m 6,5 km/h (2 Bft) NO 45 -6,6 C -1,6 C 6,3 km/h (2 Bft)
11.12.2019 17:02 -1,5 C -3,7 C 21,8 C 68 % 58 % 1011,0 hPa 0,0 l/m 6,3 km/h (2 Bft) NO 45 -6,6 C -1,5 C 7,5 km/h (2 Bft)
11.12.2019 17:00 -1,5 C -3,8 C 21,7 C 68 % 58 % 1011,0 hPa 0,0 l/m 6,0 km/h (2 Bft) N-NO 22 -6,6 C -1,5 C 7,5 km/h (2 Bft)
11.12.2019 16:58 -1,5 C -4,0 C 21,8 C 68 % 58 % 1011,0 hPa 0,0 l/m 5,8 km/h (2 Bft) N-NO 22 -6,6 C -1,5 C 7,2 km/h (2 Bft)
11.12.2019 16:56 -1,3 C -4,0 C 21,8 C 67 % 58 % 1011,3 hPa 0,0 l/m 5,3 km/h (1 Bft) N-NO 22 -6,6 C -1,3 C 7,2 km/h (2 Bft)
11.12.2019 16:54 -1,3 C -4,1 C 21,8 C 67 % 58 % 1011,3 hPa 0,0 l/m 4,1 km/h (1 Bft) NO 45 -6,6 C -1,3 C 6,8 km/h (2 Bft)
11.12.2019 16:52 -1,3 C -4,2 C 21,8 C 67 % 58 % 1011,3 hPa 0,0 l/m 3,6 km/h (1 Bft) SW 225 -6,6 C -1,3 C 5,6 km/h (1 Bft)
11.12.2019 16:50 -1,2 C -4,2 C 21,8 C 67 % 58 % 1011,3 hPa 0,0 l/m 2,9 km/h (1 Bft) N-NO 22 -6,5 C -1,2 C 5,6 km/h (1 Bft)
11.12.2019 16:48 -1,2 C -4,4 C 21,8 C 66 % 58 % 1011,3 hPa 0,0 l/m 2,9 km/h (1 Bft) N-NO 22 -6,7 C -1,2 C 5,6 km/h (1 Bft)
11.12.2019 16:46 -1,1 C -4,5 C 21,8 C 66 % 58 % 1011,3 hPa 0,0 l/m 2,7 km/h (1 Bft) N-NO 22 -6,6 C -1,1 C 4,3 km/h (1 Bft)
11.12.2019 16:44 -1,0 C -4,7 C 21,8 C 66 % 58 % 1011,3 hPa 0,0 l/m 1,9 km/h (1 Bft) NO 45 -6,5 C -1,0 C 4,3 km/h (1 Bft)
11.12.2019 16:42 -0,9 C -4,5 C 21,7 C 66 % 58 % 1011,3 hPa 0,0 l/m 1,9 km/h (1 Bft) NO 45 -6,4 C -0,9 C 4,3 km/h (1 Bft)
11.12.2019 16:40 -0,9 C -4,5 C 21,8 C 66 % 58 % 1011,3 hPa 0,0 l/m 1,4 km/h (1 Bft) O-NO 67 -6,4 C -0,9 C 4,8 km/h (1 Bft)
11.12.2019 16:38 -0,9 C -4,4 C 21,8 C 66 % 58 % 1011,3 hPa 0,0 l/m 1,2 km/h (1 Bft) O-NO 67 -6,4 C -0,9 C 4,8 km/h (1 Bft)
11.12.2019 16:36 -0,7 C -4,5 C 21,8 C 66 % 58 % 1011,4 hPa 0,0 l/m 1,2 km/h (1 Bft) O-NO 67 -6,2 C -0,7 C 4,6 km/h (1 Bft)
11.12.2019 16:34 -0,6 C -4,4 C 21,8 C 66 % 58 % 1011,4 hPa 0,0 l/m 1,7 km/h (1 Bft) O-NO 67 -6,1 C -0,6 C 0,0 km/h (0 Bft)
11.12.2019 16:32 -0,5 C -4,4 C 21,8 C 66 % 58 % 1011,4 hPa 0,0 l/m 2,4 km/h (1 Bft) O-NO 67 -6,1 C -0,5 C 0,0 km/h (0 Bft)
11.12.2019 16:30 -0,5 C -4,3 C 21,8 C 66 % 58 % 1011,4 hPa 0,0 l/m 2,9 km/h (1 Bft) O-NO 67 -6,1 C -0,5 C 3,6 km/h (1 Bft)
11.12.2019 16:28 -0,3 C -4,3 C 21,8 C 66 % 58 % 1011,4 hPa 0,0 l/m 3,6 km/h (1 Bft) NO 45 -5,9 C -0,3 C 4,3 km/h (1 Bft)
11.12.2019 16:26 -0,2 C -4,1 C 21,8 C 66 % 58 % 1011,4 hPa 0,0 l/m 3,4 km/h (1 Bft) NO 45 -5,8 C -0,2 C 4,3 km/h (1 Bft)
11.12.2019 16:24 -0,1 C -4,0 C 21,8 C 66 % 58 % 1011,4 hPa 0,0 l/m 2,9 km/h (1 Bft) O-NO 67 -5,7 C -0,1 C 3,9 km/h (1 Bft)
11.12.2019 16:22 -0,1 C -3,9 C 21,8 C 65 % 58 % 1011,4 hPa 0,0 l/m 2,2 km/h (1 Bft) NO 45 -5,9 C -0,1 C 3,6 km/h (1 Bft)
11.12.2019 16:20 -0,1 C -3,7 C 21,8 C 65 % 58 % 1011,4 hPa 0,0 l/m 1,4 km/h (1 Bft) NO 45 -5,9 C -0,1 C 3,6 km/h (1 Bft)
11.12.2019 16:18 0,1 C -3,9 C 21,8 C 65 % 58 % 1011,4 hPa 0,0 l/m 1,0 km/h (0 Bft) NO 45 -5,7 C 0,1 C 3,9 km/h (1 Bft)
11.12.2019 16:16 0,0 C -4,0 C 21,8 C 64 % 58 % 1011,7 hPa 0,0 l/m 0,2 km/h (0 Bft) NO 45 -6,0 C 0,0 C 3,9 km/h (1 Bft)
11.12.2019 16:14 0,2 C -4,1 C 21,9 C 64 % 58 % 1011,7 hPa 0,0 l/m 0,0 km/h (0 Bft) O-NO 67 -5,8 C 0,2 C 0,0 km/h (0 Bft)
11.12.2019 16:12 0,5 C -4,0 C 21,9 C 64 % 58 % 1011,7 hPa 0,0 l/m 0,0 km/h (0 Bft) O-NO 67 -5,5 C 0,5 C 0,0 km/h (0 Bft)
11.12.2019 16:10 0,9 C -4,2 C 21,8 C 64 % 58 % 1011,7 hPa 0,0 l/m 0,0 km/h (0 Bft) SO 135 -5,1 C 0,9 C 0,0 km/h (0 Bft)
11.12.2019 16:08 0,9 C -4,0 C 21,8 C 64 % 58 % 1011,7 hPa 0,0 l/m 0,0 km/h (0 Bft) O 90 -5,1 C 0,9 C 0,0 km/h (0 Bft)
11.12.2019 16:06 1,0 C -3,9 C 21,9 C 63 % 58 % 1011,7 hPa 0,0 l/m 0,0 km/h (0 Bft) S-SO 157 -5,2 C 1,0 C 0,0 km/h (0 Bft)
11.12.2019 16:04 1,2 C -3,8 C 21,8 C 63 % 58 % 1011,7 hPa 0,0 l/m 0,0 km/h (0 Bft) O-SO 112 -5,0 C 1,2 C 0,0 km/h (0 Bft)
11.12.2019 16:02 1,3 C -3,6 C 21,8 C 63 % 58 % 1011,7 hPa 0,0 l/m 0,0 km/h (0 Bft) S-SO 157 -5,0 C 1,3 C 0,0 km/h (0 Bft)
11.12.2019 16:00 1,6 C -3,6 C 21,8 C 63 % 58 % 1011,7 hPa 0,0 l/m 0,0 km/h (0 Bft) SO 135 -4,7 C 1,6 C 0,0 km/h (0 Bft)
11.12.2019 15:58 1,7 C -3,5 C 21,9 C 63 % 58 % 1011,7 hPa 0,0 l/m 0,2 km/h (0 Bft) SO 135 -4,6 C 1,7 C 0,0 km/h (0 Bft)
11.12.2019 15:56 1,8 C -3,4 C 21,8 C 63 % 58 % 1011,6 hPa 0,0 l/m 0,2 km/h (0 Bft) SO 135 -4,5 C 1,8 C 0,0 km/h (0 Bft)
11.12.2019 15:54 1,8 C -3,4 C 21,8 C 63 % 58 % 1011,6 hPa 0,0 l/m 0,2 km/h (0 Bft) SO 135 -4,5 C 1,8 C 0,0 km/h (0 Bft)
11.12.2019 15:52 2,0 C -3,4 C 21,8 C 63 % 58 % 1011,6 hPa 0,0 l/m 0,7 km/h (0 Bft) S-SO 157 -4,3 C 2,0 C 0,0 km/h (0 Bft)
11.12.2019 15:50 2,3 C -3,4 C 21,9 C 63 % 58 % 1011,6 hPa 0,0 l/m 0,7 km/h (0 Bft) S 180 -4,0 C 2,3 C 3,4 km/h (1 Bft)
11.12.2019 15:48 2,3 C -3,2 C 21,9 C 63 % 58 % 1011,6 hPa 0,0 l/m 0,7 km/h (0 Bft) S 180 -4,0 C 2,3 C 3,4 km/h (1 Bft)
11.12.2019 15:46 2,4 C -3,1 C 21,8 C 63 % 58 % 1011,6 hPa 0,0 l/m 0,5 km/h (0 Bft) S 180 -3,9 C 2,4 C 0,0 km/h (0 Bft)
11.12.2019 15:44 2,4 C -2,8 C 21,8 C 63 % 58 % 1011,6 hPa 0,0 l/m 0,5 km/h (0 Bft) S 180 -3,9 C 2,4 C 3,1 km/h (1 Bft)
11.12.2019 15:42 2,4 C -2,7 C 21,9 C 63 % 58 % 1011,6 hPa 0,0 l/m 0,5 km/h (0 Bft) S 180 -3,9 C 2,4 C 3,1 km/h (1 Bft)
11.12.2019 15:40 2,4 C -2,7 C 21,8 C 63 % 58 % 1011,6 hPa 0,0 l/m 0,2 km/h (0 Bft) S-SO 157 -3,9 C 2,4 C 0,0 km/h (0 Bft)
11.12.2019 15:38 2,4 C -2,4 C 21,9 C 63 % 59 % 1011,6 hPa 0,0 l/m 0,2 km/h (0 Bft) S 180 -3,9 C 2,4 C 0,0 km/h (0 Bft)
11.12.2019 15:36 2,5 C -2,2 C 21,9 C 63 % 59 % 1011,8 hPa 0,0 l/m 0,5 km/h (0 Bft) S-SW 202 -3,8 C 2,5 C 2,4 km/h (1 Bft)
11.12.2019 15:34 2,5 C -1,9 C 21,9 C 63 % 58 % 1011,8 hPa 0,0 l/m 0,5 km/h (0 Bft) S-SW 202 -3,8 C 2,5 C 3,4 km/h (1 Bft)
11.12.2019 15:32 2,5 C -1,2 C 21,9 C 63 % 59 % 1011,8 hPa 0,0 l/m 0,2 km/h (0 Bft) S-SO 157 -3,8 C 2,5 C 3,4 km/h (1 Bft)
11.12.2019 15:30 2,5 C -0,7 C 21,9 C 63 % 58 % 1011,8 hPa 0,0 l/m 0,0 km/h (0 Bft) S 180 -3,8 C 2,5 C 0,0 km/h (0 Bft)
11.12.2019 15:28 2,5 C -0,4 C 21,9 C 63 % 58 % 1011,8 hPa 0,0 l/m 0,0 km/h (0 Bft) S-SO 157 -3,8 C 2,5 C 0,0 km/h (0 Bft)
11.12.2019 15:26 2,5 C -0,3 C 21,9 C 63 % 58 % 1011,8 hPa 0,0 l/m 0,2 km/h (0 Bft) S-SO 157 -3,8 C 2,5 C 0,0 km/h (0 Bft)
11.12.2019 15:24 2,6 C 0,9 C 21,9 C 63 % 59 % 1011,8 hPa 0,0 l/m 0,2 km/h (0 Bft) S-SO 157 -3,7 C 2,6 C 0,0 km/h (0 Bft)
11.12.2019 15:22 2,6 C 1,3 C 21,9 C 62 % 59 % 1011,8 hPa 0,0 l/m 0,7 km/h (0 Bft) S-SO 157 -3,9 C 2,6 C 0,0 km/h (0 Bft)
11.12.2019 15:20 2,6 C 2,4 C 21,9 C 62 % 59 % 1011,8 hPa 0,0 l/m 0,7 km/h (0 Bft) S-SO 157 -3,9 C 2,6 C 0,0 km/h (0 Bft)
11.12.2019 15:18 2,7 C 2,6 C 21,9 C 62 % 59 % 1011,8 hPa 0,0 l/m 1,2 km/h (1 Bft) S 180 -3,8 C 2,7 C 0,0 km/h (0 Bft)
11.12.2019 15:16 2,7 C 3,2 C 21,9 C 62 % 59 % 1012,1 hPa 0,0 l/m 1,4 km/h (1 Bft) S 180 -3,8 C 2,7 C 0,0 km/h (0 Bft)
11.12.2019 15:14 2,7 C 4,2 C 21,9 C 62 % 59 % 1012,1 hPa 0,0 l/m 1,7 km/h (1 Bft) S-SO 157 -3,8 C 2,7 C 3,6 km/h (1 Bft)
11.12.2019 15:12 2,8 C 4,4 C 21,9 C 63 % 59 % 1012,1 hPa 0,0 l/m 1,4 km/h (1 Bft) S 180 -3,5 C 2,8 C 3,6 km/h (1 Bft)
11.12.2019 15:10 2,8 C 4,8 C 21,9 C 63 % 59 % 1012,1 hPa 0,0 l/m 1,9 km/h (1 Bft) SO 135 -3,5 C 2,8 C 2,4 km/h (1 Bft)
11.12.2019 15:08 2,9 C 4,8 C 21,9 C 63 % 59 % 1012,1 hPa 0,0 l/m 1,7 km/h (1 Bft) S-SO 157 -3,4 C 2,9 C 6,8 km/h (2 Bft)
11.12.2019 15:06 2,9 C 4,6 C 21,9 C 63 % 59 % 1012,1 hPa 0,0 l/m 2,4 km/h (1 Bft) S 180 -3,4 C 2,9 C 6,8 km/h (2 Bft)
11.12.2019 15:04 2,9 C 4,4 C 21,9 C 63 % 59 % 1012,1 hPa 0,0 l/m 2,4 km/h (1 Bft) S-SO 157 -3,4 C 2,9 C 2,9 km/h (1 Bft)
11.12.2019 15:02 2,9 C 4,5 C 21,9 C 63 % 59 % 1012,1 hPa 0,0 l/m 2,9 km/h (1 Bft) SO 135 -3,4 C 2,9 C 4,1 km/h (1 Bft)
11.12.2019 15:00 2,9 C 4,3 C 21,9 C 63 % 59 % 1012,1 hPa 0,0 l/m 3,4 km/h (1 Bft) S-SO 157 -3,4 C 2,9 C 4,8 km/h (1 Bft)
11.12.2019 14:58 2,9 C 3,7 C 21,9 C 63 % 59 % 1012,1 hPa 0,0 l/m 4,1 km/h (1 Bft) SO 135 -3,4 C 2,9 C 7,0 km/h (2 Bft)
11.12.2019 14:56 2,9 C 2,5 C 21,9 C 63 % 59 % 1012,4 hPa 0,0 l/m 4,8 km/h (1 Bft) S-SO 157 -3,4 C 2,9 C 7,0 km/h (2 Bft)
11.12.2019 14:54 3,0 C 1,9 C 21,9 C 61 % 59 % 1012,4 hPa 0,0 l/m 4,8 km/h (1 Bft) SO 135 -3,8 C 3,0 C 5,1 km/h (1 Bft)
11.12.2019 14:52 2,9 C 2,4 C 21,9 C 62 % 59 % 1012,4 hPa 0,0 l/m 4,8 km/h (1 Bft) S-SO 157 -3,6 C 2,9 C 5,1 km/h (1 Bft)
11.12.2019 14:50 3,0 C 2,1 C 21,9 C 61 % 59 % 1012,4 hPa 0,0 l/m 5,1 km/h (1 Bft) SO 135 -3,8 C 3,0 C 5,8 km/h (2 Bft)
11.12.2019 14:48 3,0 C 0,6 C 21,9 C 61 % 59 % 1012,4 hPa 0,0 l/m 5,8 km/h (2 Bft) SO 135 -3,8 C 3,0 C 12,1 km/h (2 Bft)
11.12.2019 14:46 2,9 C 0,3 C 21,8 C 62 % 59 % 1012,4 hPa 0,0 l/m 6,0 km/h (2 Bft) SO 135 -3,6 C 2,9 C 12,1 km/h (2 Bft)
11.12.2019 14:44 2,9 C 0,8 C 21,9 C 62 % 59 % 1012,4 hPa 0,0 l/m 5,6 km/h (1 Bft) SO 135 -3,6 C 2,9 C 5,8 km/h (2 Bft)
11.12.2019 14:42 2,9 C 0,8 C 21,9 C 62 % 59 % 1012,4 hPa 0,0 l/m 6,0 km/h (2 Bft) O-SO 112 -3,6 C 2,9 C 3,4 km/h (1 Bft)
11.12.2019 14:40 2,8 C 0,7 C 21,9 C 62 % 59 % 1012,4 hPa 0,0 l/m 6,5 km/h (2 Bft) S-SO 157 -3,7 C 2,7 C 10,9 km/h (2 Bft)
11.12.2019 14:38 2,8 C 0,9 C 21,9 C 62 % 59 % 1012,4 hPa 0,0 l/m 7,0 km/h (2 Bft) S 180 -3,7 C 2,2 C 10,9 km/h (2 Bft)
11.12.2019 14:36 2,8 C 1,2 C 21,8 C 62 % 59 % 1012,8 hPa 0,0 l/m 7,5 km/h (2 Bft) SO 135 -3,7 C 1,8 C 7,0 km/h (2 Bft)
11.12.2019 14:34 2,8 C 1,2 C 21,8 C 62 % 59 % 1012,8 hPa 0,0 l/m 7,7 km/h (2 Bft) S 180 -3,7 C 1,6 C 8,9 km/h (2 Bft)
11.12.2019 14:32 2,8 C 1,4 C 21,8 C 62 % 59 % 1012,8 hPa 0,0 l/m 8,2 km/h (2 Bft) S 180 -3,7 C 1,1 C 8,9 km/h (2 Bft)
11.12.2019 14:30 2,7 C 2,1 C 21,9 C 62 % 59 % 1012,8 hPa 0,0 l/m 8,2 km/h (2 Bft) S-SO 157 -3,8 C 1,0 C 13,0 km/h (3 Bft)
11.12.2019 14:28 2,8 C 2,7 C 21,9 C 62 % 59 % 1012,8 hPa 0,0 l/m 8,2 km/h (2 Bft) S-SO 157 -3,7 C 1,1 C 14,5 km/h (3 Bft)
11.12.2019 14:26 2,8 C 3,2 C 21,9 C 62 % 59 % 1012,8 hPa 0,0 l/m 7,7 km/h (2 Bft) S 180 -3,7 C 1,6 C 14,5 km/h (3 Bft)
11.12.2019 14:24 2,8 C 3,1 C 21,8 C 62 % 59 % 1012,8 hPa 0,0 l/m 7,5 km/h (2 Bft) S 180 -3,7 C 1,8 C 8,7 km/h (2 Bft)
11.12.2019 14:22 2,8 C 3,2 C 21,9 C 62 % 59 % 1012,8 hPa 0,0 l/m 8,0 km/h (2 Bft) S-SO 157 -3,7 C 1,3 C 13,0 km/h (3 Bft)
11.12.2019 14:20 2,8 C 3,7 C 21,8 C 62 % 59 % 1012,8 hPa 0,0 l/m 8,4 km/h (2 Bft) S-SO 157 -3,7 C 0,9 C 13,0 km/h (3 Bft)
11.12.2019 14:18 2,9 C 3,8 C 21,8 C 62 % 59 % 1012,8 hPa 0,0 l/m 8,4 km/h (2 Bft) SO 135 -3,6 C 1,0 C 16,2 km/h (3 Bft)
11.12.2019 14:16 2,9 C 4,0 C 21,8 C 62 % 59 % 1012,9 hPa 0,0 l/m 8,4 km/h (2 Bft) SO 135 -3,6 C 1,0 C 11,8 km/h (2 Bft)
11.12.2019 14:14 3,1 C 4,5 C 21,8 C 60 % 59 % 1012,9 hPa 0,0 l/m 8,9 km/h (2 Bft) S 180 -3,9 C 0,8 C 13,8 km/h (3 Bft)
11.12.2019 14:12 3,1 C 4,4 C 21,8 C 60 % 59 % 1012,9 hPa 0,0 l/m 8,0 km/h (2 Bft) SO 135 -3,9 C 1,6 C 13,8 km/h (3 Bft)
11.12.2019 14:10 3,1 C 4,0 C 21,8 C 60 % 59 % 1012,9 hPa 0,0 l/m 7,5 km/h (2 Bft) S 180 -3,9 C 2,1 C 10,9 km/h (2 Bft)
11.12.2019 14:08 3,1 C 3,9 C 21,8 C 60 % 59 % 1012,9 hPa 0,0 l/m 7,0 km/h (2 Bft) SO 135 -3,9 C 2,5 C 10,9 km/h (2 Bft)
11.12.2019 14:06 3,2 C 3,7 C 21,8 C 60 % 59 % 1012,9 hPa 0,0 l/m 6,5 km/h (2 Bft) SO 135 -3,8 C 3,1 C 9,4 km/h (2 Bft)
11.12.2019 14:04 3,3 C 4,4 C 21,8 C 61 % 59 % 1012,9 hPa 0,0 l/m 6,3 km/h (2 Bft) S-SO 157 -3,5 C 3,3 C 8,4 km/h (2 Bft)
11.12.2019 14:02 3,3 C 4,6 C 21,8 C 61 % 59 % 1012,9 hPa 0,0 l/m 6,8 km/h (2 Bft) S 180 -3,5 C 2,9 C 5,3 km/h (1 Bft)
11.12.2019 14:00 3,3 C 3,7 C 21,8 C 61 % 59 % 1012,9 hPa 0,0 l/m 6,3 km/h (2 Bft) O-SO 112 -3,5 C 3,3 C 5,3 km/h (1 Bft)
11.12.2019 13:58 3,3 C 2,7 C 21,8 C 61 % 59 % 1012,9 hPa 0,0 l/m 6,3 km/h (2 Bft) S 180 -3,5 C 3,3 C 4,3 km/h (1 Bft)
11.12.2019 13:56 3,3 C 2,7 C 21,8 C 61 % 59 % 1013,1 hPa 0,0 l/m 6,8 km/h (2 Bft) S 180 -3,5 C 2,9 C 13,5 km/h (3 Bft)
11.12.2019 13:54 3,3 C 3,1 C 21,9 C 61 % 59 % 1013,1 hPa 0,0 l/m 7,2 km/h (2 Bft) SO 135 -3,5 C 2,5 C 14,0 km/h (3 Bft)
11.12.2019 13:52 3,3 C 3,4 C 21,8 C 61 % 59 % 1013,1 hPa 0,0 l/m 7,5 km/h (2 Bft) O-SO 112 -3,5 C 2,3 C 14,0 km/h (3 Bft)
11.12.2019 13:50 3,4 C 4,6 C 21,8 C 62 % 59 % 1013,1 hPa 0,0 l/m 7,5 km/h (2 Bft) SO 135 -3,2 C 2,4 C 9,2 km/h (2 Bft)
11.12.2019 13:48 3,4 C 4,6 C 21,8 C 62 % 59 % 1013,1 hPa 0,0 l/m 7,7 km/h (2 Bft) SO 135 -3,2 C 2,2 C 14,0 km/h (3 Bft)
11.12.2019 13:46 3,4 C 3,8 C 21,9 C 62 % 59 % 1013,1 hPa 0,0 l/m 7,7 km/h (2 Bft) S-SO 157 -3,2 C 2,2 C 8,4 km/h (2 Bft)
11.12.2019 13:44 3,4 C 4,1 C 21,9 C 62 % 59 % 1013,1 hPa 0,0 l/m 8,2 km/h (2 Bft) SO 135 -3,2 C 1,7 C 11,1 km/h (2 Bft)
11.12.2019 13:42 3,4 C 5,5 C 21,8 C 62 % 59 % 1013,1 hPa 0,0 l/m 7,2 km/h (2 Bft) SO 135 -3,2 C 2,7 C 12,8 km/h (3 Bft)
11.12.2019 13:40 3,5 C 6,0 C 21,8 C 63 % 59 % 1013,1 hPa 0,0 l/m 6,3 km/h (2 Bft) SO 135 -2,9 C 3,5 C 12,8 km/h (3 Bft)
11.12.2019 13:38 3,5 C 6,1 C 21,8 C 63 % 59 % 1013,1 hPa 0,0 l/m 6,0 km/h (2 Bft) SO 135 -2,9 C 3,5 C 12,3 km/h (3 Bft)
11.12.2019 13:36 3,6 C 6,3 C 21,9 C 63 % 59 % 1013,5 hPa 0,0 l/m 6,0 km/h (2 Bft) SO 135 -2,8 C 3,6 C 12,3 km/h (3 Bft)
11.12.2019 13:34 3,9 C 6,6 C 21,8 C 63 % 59 % 1013,5 hPa 0,0 l/m 4,8 km/h (1 Bft) SO 135 -2,5 C 3,9 C 12,3 km/h (3 Bft)
11.12.2019 13:32 4,0 C 6,1 C 21,8 C 63 % 59 % 1013,5 hPa 0,0 l/m 4,1 km/h (1 Bft) S-SO 157 -2,4 C 4,0 C 6,5 km/h (2 Bft)
11.12.2019 13:30 4,0 C 6,0 C 21,8 C 63 % 59 % 1013,5 hPa 0,0 l/m 4,1 km/h (1 Bft) S-SO 157 -2,4 C 4,0 C 8,7 km/h (2 Bft)
11.12.2019 13:28 3,9 C 6,5 C 21,8 C 64 % 59 % 1013,5 hPa 0,0 l/m 3,6 km/h (1 Bft) S 180 -2,3 C 3,9 C 8,7 km/h (2 Bft)
11.12.2019 13:26 3,9 C 7,6 C 21,8 C 64 % 59 % 1013,5 hPa 0,0 l/m 3,1 km/h (1 Bft) S 180 -2,3 C 3,9 C 3,4 km/h (1 Bft)
11.12.2019 13:24 3,8 C 8,4 C 21,8 C 64 % 59 % 1013,5 hPa 0,0 l/m 4,1 km/h (1 Bft) W-SW 247 -2,4 C 3,8 C 6,3 km/h (2 Bft)
11.12.2019 13:22 4,0 C 8,9 C 21,8 C 64 % 59 % 1013,5 hPa 0,0 l/m 5,1 km/h (1 Bft) S-SO 157 -2,2 C 4,0 C 6,3 km/h (2 Bft)
11.12.2019 13:20 3,9 C 8,8 C 21,8 C 64 % 59 % 1013,5 hPa 0,0 l/m 4,6 km/h (1 Bft) S-SO 157 -2,3 C 3,9 C 3,6 km/h (1 Bft)
11.12.2019 13:18 4,1 C 9,0 C 21,8 C 64 % 59 % 1013,5 hPa 0,0 l/m 5,6 km/h (1 Bft) SW 225 -2,1 C 4,1 C 5,8 km/h (2 Bft)
11.12.2019 13:16 4,0 C 9,5 C 21,9 C 64 % 59 % 1013,8 hPa 0,0 l/m 5,3 km/h (1 Bft) S 180 -2,2 C 4,0 C 5,8 km/h (2 Bft)
11.12.2019 13:14 3,9 C 10,1 C 21,8 C 64 % 59 % 1013,8 hPa 0,0 l/m 5,3 km/h (1 Bft) NO 45 -2,3 C 3,9 C 9,9 km/h (2 Bft)
11.12.2019 13:12 3,9 C 9,7 C 21,8 C 65 % 59 % 1013,8 hPa 0,0 l/m 5,6 km/h (1 Bft) S 180 -2,1 C 3,9 C 9,9 km/h (2 Bft)
11.12.2019 13:10 3,8 C 9,9 C 21,9 C 65 % 59 % 1013,8 hPa 0,0 l/m 5,8 km/h (2 Bft) S 180 -2,2 C 3,8 C 7,7 km/h (2 Bft)
11.12.2019 13:08 4,0 C 10,9 C 21,9 C 65 % 58 % 1013,8 hPa 0,0 l/m 5,8 km/h (2 Bft) S-SW 202 -2,0 C 4,0 C 11,8 km/h (2 Bft)
11.12.2019 13:06 3,9 C 10,5 C 21,8 C 65 % 59 % 1013,8 hPa 0,0 l/m 6,5 km/h (2 Bft) SO 135 -2,1 C 3,8 C 8,2 km/h (2 Bft)
11.12.2019 13:04 3,6 C 9,6 C 21,8 C 65 % 59 % 1013,8 hPa 0,0 l/m 6,8 km/h (2 Bft) S-SO 157 -2,4 C 3,2 C 8,2 km/h (2 Bft)
11.12.2019 13:02 3,6 C 9,3 C 21,8 C 65 % 58 % 1013,8 hPa 0,0 l/m 6,8 km/h (2 Bft) S 180 -2,4 C 3,2 C 8,0 km/h (2 Bft)
11.12.2019 13:00 3,5 C 9,8 C 21,8 C 66 % 59 % 1013,8 hPa 0,0 l/m 6,5 km/h (2 Bft) S 180 -2,2 C 3,4 C 8,0 km/h (2 Bft)
11.12.2019 12:58 3,5 C 10,0 C 21,8 C 66 % 58 % 1013,8 hPa 0,0 l/m 5,8 km/h (2 Bft) S-SO 157 -2,2 C 3,5 C 11,6 km/h (2 Bft)
11.12.2019 12:56 3,5 C 10,1 C 21,8 C 66 % 58 % 1014,2 hPa 0,0 l/m 4,6 km/h (1 Bft) SW 225 -2,2 C 3,5 C 11,6 km/h (2 Bft)
11.12.2019 12:54 3,9 C 10,0 C 21,8 C 67 % 58 % 1014,2 hPa 0,0 l/m 3,9 km/h (1 Bft) S-SO 157 -1,7 C 3,9 C 8,4 km/h (2 Bft)
11.12.2019 12:52 3,5 C 10,3 C 21,9 C 67 % 59 % 1014,2 hPa 0,0 l/m 3,1 km/h (1 Bft) S-SO 157 -2,0 C 3,5 C 8,4 km/h (2 Bft)
11.12.2019 12:50 3,8 C 10,9 C 21,9 C 67 % 58 % 1014,2 hPa 0,0 l/m 2,9 km/h (1 Bft) S 180 -1,8 C 3,8 C 4,1 km/h (1 Bft)
11.12.2019 12:48 3,6 C 10,9 C 21,9 C 68 % 58 % 1014,2 hPa 0,0 l/m 3,1 km/h (1 Bft) S-SO 157 -1,7 C 3,6 C 3,6 km/h (1 Bft)
11.12.2019 12:46 3,8 C 10,5 C 21,8 C 68 % 58 % 1014,2 hPa 0,0 l/m 3,4 km/h (1 Bft) SW 225 -1,6 C 3,8 C 5,8 km/h (2 Bft)
11.12.2019 12:44 3,5 C 10,1 C 21,9 C 68 % 58 % 1014,2 hPa 0,0 l/m 4,1 km/h (1 Bft) S-SO 157 -1,8 C 3,5 C 5,8 km/h (2 Bft)
11.12.2019 12:42 3,7 C 10,2 C 21,9 C 68 % 58 % 1014,2 hPa 0,0 l/m 4,1 km/h (1 Bft) S 180 -1,6 C 3,7 C 4,1 km/h (1 Bft)
11.12.2019 12:40 3,1 C 10,1 C 21,9 C 68 % 58 % 1014,2 hPa 0,0 l/m 4,3 km/h (1 Bft) SO 135 -2,2 C 3,1 C 5,1 km/h (1 Bft)
11.12.2019 12:38 3,3 C 9,2 C 21,9 C 68 % 58 % 1014,2 hPa 0,0 l/m 4,3 km/h (1 Bft) SO 135 -2,0 C 3,3 C 5,1 km/h (1 Bft)
11.12.2019 12:36 3,2 C 8,7 C 21,8 C 69 % 58 % 1014,7 hPa 0,0 l/m 4,6 km/h (1 Bft) SO 135 -1,9 C 3,2 C 5,6 km/h (1 Bft)
11.12.2019 12:34 3,1 C 8,8 C 21,9 C 69 % 58 % 1014,7 hPa 0,0 l/m 4,6 km/h (1 Bft) O-SO 112 -2,0 C 3,1 C 7,2 km/h (2 Bft)
11.12.2019 12:32 3,1 C 8,8 C 21,8 C 69 % 58 % 1014,7 hPa 0,0 l/m 4,8 km/h (1 Bft) SW 225 -2,0 C 3,1 C 7,2 km/h (2 Bft)
11.12.2019 12:30 3,1 C 9,0 C 21,8 C 70 % 58 % 1014,7 hPa 0,0 l/m 4,6 km/h (1 Bft) SO 135 -1,8 C 3,1 C 5,8 km/h (2 Bft)
11.12.2019 12:28 3,0 C 8,7 C 21,8 C 70 % 58 % 1014,7 hPa 0,0 l/m 4,1 km/h (1 Bft) SO 135 -1,9 C 3,0 C 7,2 km/h (2 Bft)
11.12.2019 12:26 3,2 C 9,2 C 21,9 C 70 % 58 % 1014,7 hPa 0,0 l/m 3,9 km/h (1 Bft) SO 135 -1,7 C 3,2 C 7,2 km/h (2 Bft)
11.12.2019 12:24 3,1 C 9,3 C 21,9 C 71 % 58 % 1014,7 hPa 0,0 l/m 3,9 km/h (1 Bft) O-SO 112 -1,6 C 3,1 C 6,8 km/h (2 Bft)
11.12.2019 12:22 3,1 C 9,4 C 21,8 C 71 % 58 % 1014,7 hPa 0,0 l/m 3,4 km/h (1 Bft) S-SO 157 -1,6 C 3,1 C 6,8 km/h (2 Bft)
11.12.2019 12:20 2,9 C 9,2 C 21,9 C 73 % 58 % 1014,7 hPa 0,0 l/m 2,4 km/h (1 Bft) S-SO 157 -1,5 C 2,9 C 3,9 km/h (1 Bft)
11.12.2019 12:18 2,7 C 9,3 C 21,9 C 73 % 58 % 1014,7 hPa 0,0 l/m 2,7 km/h (1 Bft) S-SO 157 -1,6 C 2,7 C 4,3 km/h (1 Bft)
11.12.2019 12:16 2,7 C 8,8 C 21,9 C 74 % 58 % 1015,3 hPa 0,0 l/m 2,4 km/h (1 Bft) S-SO 157 -1,5 C 2,7 C 4,3 km/h (1 Bft)
11.12.2019 12:14 2,3 C 9,5 C 21,9 C 74 % 58 % 1015,3 hPa 0,0 l/m 1,7 km/h (1 Bft) SO 135 -1,8 C 2,3 C 4,3 km/h (1 Bft)
11.12.2019 12:12 2,2 C 8,0 C 21,9 C 74 % 58 % 1015,3 hPa 0,0 l/m 1,0 km/h (0 Bft) SO 135 -1,9 C 2,2 C 4,1 km/h (1 Bft)
11.12.2019 12:10 2,1 C 8,0 C 21,9 C 75 % 58 % 1015,3 hPa 0,0 l/m 0,7 km/h (0 Bft) S-SO 157 -1,9 C 2,1 C 3,1 km/h (1 Bft)
11.12.2019 12:08 2,1 C 8,0 C 21,9 C 75 % 58 % 1015,3 hPa 0,0 l/m 0,7 km/h (0 Bft) S-SO 157 -1,9 C 2,1 C 3,1 km/h (1 Bft)
11.12.2019 12:06 2,1 C 8,0 C 21,9 C 75 % 58 % 1015,3 hPa 0,0 l/m 0,7 km/h (0 Bft) S-SO 157 -1,9 C 2,1 C 3,1 km/h (1 Bft)
11.12.2019 12:04 2,1 C 8,0 C 21,9 C 75 % 58 % 1015,3 hPa 0,0 l/m 0,7 km/h (0 Bft) S-SO 157 -1,9 C 2,1 C 3,1 km/h (1 Bft)
11.12.2019 12:02 2,1 C 8,0 C 21,9 C 75 % 58 % 1015,3 hPa 0,0 l/m 0,7 km/h (0 Bft) S-SO 157 -1,9 C 2,1 C 4,3 km/h (1 Bft)
11.12.2019 12:00 1,7 C 8,8 C 21,9 C 75 % 58 % 1015,3 hPa 0,0 l/m 0,7 km/h (0 Bft) S 180 -2,2 C 1,7 C 4,3 km/h (1 Bft)
11.12.2019 11:58 1,4 C 8,4 C 21,9 C 75 % 58 % 1015,3 hPa 0,0 l/m 0,5 km/h (0 Bft) O-SO 112 -2,5 C 1,4 C 0,0 km/h (0 Bft)
11.12.2019 11:56 1,4 C 8,4 C 21,9 C 75 % 58 % 1015,6 hPa 0,0 l/m 1,0 km/h (0 Bft) S 180 -2,5 C 1,4 C 0,0 km/h (0 Bft)
11.12.2019 11:54 1,2 C 8,5 C 21,9 C 75 % 58 % 1015,6 hPa 0,0 l/m 1,2 km/h (1 Bft) S-SW 202 -2,7 C 1,2 C 0,0 km/h (0 Bft)
11.12.2019 11:52 1,4 C 9,2 C 21,8 C 75 % 58 % 1015,6 hPa 0,0 l/m 1,9 km/h (1 Bft) W 270 -2,5 C 1,4 C 0,0 km/h (0 Bft)
11.12.2019 11:50 1,4 C 9,3 C 21,8 C 75 % 58 % 1015,6 hPa 0,0 l/m 2,4 km/h (1 Bft) W-SW 247 -2,5 C 1,4 C 2,7 km/h (1 Bft)
11.12.2019 11:48 1,2 C 9,4 C 21,9 C 76 % 58 % 1015,6 hPa 0,0 l/m 2,7 km/h (1 Bft) NW 315 -2,5 C 1,2 C 3,4 km/h (1 Bft)
11.12.2019 11:46 1,2 C 9,3 C 21,9 C 76 % 58 % 1015,6 hPa 0,0 l/m 2,7 km/h (1 Bft) W 270 -2,5 C 1,2 C 3,4 km/h (1 Bft)
11.12.2019 11:44 1,2 C 9,0 C 21,9 C 76 % 58 % 1015,6 hPa 0,0 l/m 2,9 km/h (1 Bft) W 270 -2,5 C 1,2 C 5,1 km/h (1 Bft)
11.12.2019 11:42 1,2 C 8,9 C 21,9 C 76 % 58 % 1015,6 hPa 0,0 l/m 2,4 km/h (1 Bft) W 270 -2,5 C 1,2 C 5,1 km/h (1 Bft)
11.12.2019 11:40 1,1 C 8,8 C 21,9 C 76 % 58 % 1015,6 hPa 0,0 l/m 2,4 km/h (1 Bft) W-NW 292 -2,6 C 1,1 C 4,8 km/h (1 Bft)
11.12.2019 11:38 1,1 C 8,1 C 21,8 C 76 % 58 % 1015,6 hPa 0,0 l/m 2,7 km/h (1 Bft) NW 315 -2,6 C 1,1 C 4,8 km/h (1 Bft)
11.12.2019 11:36 1,1 C 7,7 C 21,9 C 76 % 58 % 1015,9 hPa 0,0 l/m 2,2 km/h (1 Bft) NW 315 -2,6 C 1,1 C 3,4 km/h (1 Bft)
11.12.2019 11:34 1,0 C 6,7 C 21,8 C 76 % 58 % 1015,9 hPa 0,0 l/m 1,7 km/h (1 Bft) W 270 -2,7 C 1,0 C 3,4 km/h (1 Bft)
11.12.2019 11:32 1,0 C 5,6 C 21,8 C 76 % 58 % 1015,9 hPa 0,0 l/m 1,7 km/h (1 Bft) N-NW 337 -2,7 C 1,0 C 5,3 km/h (1 Bft)
11.12.2019 11:30 1,0 C 3,4 C 21,9 C 77 % 58 % 1015,9 hPa 0,0 l/m 1,2 km/h (1 Bft) W-NW 292 -2,6 C 1,0 C 5,3 km/h (1 Bft)
11.12.2019 11:28 0,5 C 2,2 C 21,8 C 77 % 58 % 1015,9 hPa 0,0 l/m 1,0 km/h (0 Bft) W-NW 292 -3,1 C 0,5 C 3,9 km/h (1 Bft)
11.12.2019 11:26 0,3 C 0,9 C 21,9 C 77 % 58 % 1015,9 hPa 0,0 l/m 1,2 km/h (1 Bft) O-NO 67 -3,2 C 0,3 C 0,0 km/h (0 Bft)
11.12.2019 11:24 0,3 C -0,6 C 21,9 C 77 % 58 % 1015,9 hPa 0,0 l/m 2,2 km/h (1 Bft) O-NO 67 -3,2 C 0,3 C 0,0 km/h (0 Bft)
11.12.2019 11:22 0,3 C -1,3 C 21,8 C 78 % 58 % 1015,9 hPa 0,0 l/m 2,2 km/h (1 Bft) SW 225 -3,1 C 0,3 C 2,4 km/h (1 Bft)
11.12.2019 11:20 0,4 C -1,3 C 21,9 C 78 % 58 % 1015,9 hPa 0,0 l/m 2,2 km/h (1 Bft) W-SW 247 -3,0 C 0,4 C 2,4 km/h (1 Bft)
11.12.2019 11:18 0,6 C -1,3 C 21,8 C 78 % 58 % 1015,9 hPa 0,0 l/m 1,9 km/h (1 Bft) W 270 -2,8 C 0,6 C 6,5 km/h (2 Bft)
11.12.2019 11:16 0,6 C -1,4 C 21,8 C 78 % 58 % 1016,4 hPa 0,0 l/m 1,4 km/h (1 Bft) W 270 -2,8 C 0,6 C 6,5 km/h (2 Bft)
11.12.2019 11:14 0,7 C -1,6 C 21,9 C 78 % 58 % 1016,4 hPa 0,0 l/m 0,7 km/h (0 Bft) W 270 -2,7 C 0,7 C 4,8 km/h (1 Bft)
11.12.2019 11:12 0,4 C -1,7 C 21,9 C 79 % 58 % 1016,4 hPa 0,0 l/m 0,5 km/h (0 Bft) W-SW 247 -2,8 C 0,4 C 0,0 km/h (0 Bft)
11.12.2019 11:10 0,3 C -1,6 C 21,8 C 79 % 58 % 1016,4 hPa 0,0 l/m 0,7 km/h (0 Bft) W 270 -2,9 C 0,3 C 0,0 km/h (0 Bft)
11.12.2019 11:08 0,1 C -1,7 C 21,8 C 79 % 58 % 1016,4 hPa 0,0 l/m 0,7 km/h (0 Bft) O-NO 67 -3,1 C 0,1 C 0,0 km/h (0 Bft)
11.12.2019 11:06 -0,2 C -1,6 C 21,9 C 79 % 58 % 1016,4 hPa 0,0 l/m 0,7 km/h (0 Bft) NO 45 -3,4 C -0,2 C 0,0 km/h (0 Bft)
11.12.2019 11:04 -0,3 C -1,4 C 21,9 C 79 % 58 % 1016,4 hPa 0,0 l/m 0,7 km/h (0 Bft) O-NO 67 -3,5 C -0,3 C 4,6 km/h (1 Bft)
11.12.2019 11:02 -0,3 C -1,4 C 21,9 C 79 % 58 % 1016,4 hPa 0,0 l/m 0,7 km/h (0 Bft) NO 45 -3,5 C -0,3 C 4,6 km/h (1 Bft)
11.12.2019 11:00 -0,3 C -1,3 C 21,8 C 79 % 58 % 1016,4 hPa 0,0 l/m 0,2 km/h (0 Bft) N-NO 22 -3,5 C -0,3 C 2,7 km/h (1 Bft)
11.12.2019 10:58 -0,2 C -1,3 C 21,9 C 79 % 58 % 1016,4 hPa 0,0 l/m 0,2 km/h (0 Bft) NO 45 -3,4 C -0,2 C 2,4 km/h (1 Bft)
11.12.2019 10:56 -0,4 C -1,4 C 21,9 C 79 % 58 % 1016,9 hPa 0,0 l/m 0,2 km/h (0 Bft) NO 45 -3,6 C -0,4 C 2,4 km/h (1 Bft)
11.12.2019 10:54 -0,6 C -1,3 C 21,9 C 79 % 58 % 1016,9 hPa 0,0 l/m 0,0 km/h (0 Bft) N-NO 22 -3,8 C -0,6 C 0,0 km/h (0 Bft)
11.12.2019 10:52 -0,6 C -1,2 C 21,9 C 79 % 58 % 1016,9 hPa 0,0 l/m 0,0 km/h (0 Bft) SW 225 -3,8 C -0,6 C 0,0 km/h (0 Bft)
11.12.2019 10:50 -0,4 C -1,3 C 21,9 C 79 % 58 % 1016,9 hPa 0,0 l/m 0,0 km/h (0 Bft) W-SW 247 -3,6 C -0,4 C 0,0 km/h (0 Bft)
11.12.2019 10:48 -0,4 C -1,2 C 21,9 C 79 % 58 % 1016,9 hPa 0,0 l/m 0,0 km/h (0 Bft) NW 315 -3,6 C -0,4 C 0,0 km/h (0 Bft)
11.12.2019 10:46 -0,4 C -1,2 C 21,9 C 79 % 58 % 1016,9 hPa 0,0 l/m 0,0 km/h (0 Bft) W-NW 292 -3,6 C -0,4 C 0,0 km/h (0 Bft)
11.12.2019 10:44 -0,3 C -1,0 C 21,9 C 79 % 58 % 1016,9 hPa 0,0 l/m 0,0 km/h (0 Bft) SO 135 -3,5 C -0,3 C 0,0 km/h (0 Bft)
11.12.2019 10:42 -0,3 C -0,6 C 21,9 C 80 % 58 % 1016,9 hPa 0,0 l/m 0,2 km/h (0 Bft) NO 45 -3,3 C -0,3 C 0,0 km/h (0 Bft)
11.12.2019 10:40 -0,3 C -0,2 C 21,9 C 80 % 58 % 1016,9 hPa 0,0 l/m 0,7 km/h (0 Bft) S-SO 157 -3,3 C -0,3 C 0,0 km/h (0 Bft)
11.12.2019 10:38 -0,7 C 0,3 C 21,9 C 80 % 58 % 1016,9 hPa 0,0 l/m 1,0 km/h (0 Bft) S-SO 157 -3,7 C -0,7 C 0,0 km/h (0 Bft)
11.12.2019 10:36 -0,7 C 0,7 C 21,9 C 80 % 58 % 1017,4 hPa 0,0 l/m 1,2 km/h (1 Bft) O-SO 112 -3,7 C -0,7 C 0,0 km/h (0 Bft)
11.12.2019 10:34 -0,7 C 0,8 C 21,9 C 80 % 58 % 1017,4 hPa 0,0 l/m 1,4 km/h (1 Bft) S 180 -3,7 C -0,7 C 0,0 km/h (0 Bft)
11.12.2019 10:32 -0,9 C 1,5 C 21,9 C 80 % 58 % 1017,4 hPa 0,0 l/m 1,4 km/h (1 Bft) S-SO 157 -3,9 C -0,9 C 5,1 km/h (1 Bft)
11.12.2019 10:30 -0,9 C 1,1 C 21,8 C 80 % 58 % 1017,4 hPa 0,0 l/m 1,2 km/h (1 Bft) SO 135 -3,9 C -0,9 C 5,1 km/h (1 Bft)
11.12.2019 10:28 -1,1 C 0,9 C 21,9 C 80 % 58 % 1017,4 hPa 0,0 l/m 0,7 km/h (0 Bft) S 180 -4,1 C -1,1 C 3,1 km/h (1 Bft)
11.12.2019 10:26 -1,6 C -2,6 C 21,8 C 80 % 58 % 1017,4 hPa 0,0 l/m 0,5 km/h (0 Bft) S-SO 157 -4,6 C -1,6 C 2,7 km/h (1 Bft)
11.12.2019 10:24 -1,6 C -2,7 C 21,9 C 80 % 58 % 1017,4 hPa 0,0 l/m 0,0 km/h (0 Bft) S-SO 157 -4,6 C -1,6 C 0,0 km/h (0 Bft)
11.12.2019 10:22 -1,8 C -2,7 C 21,9 C 80 % 58 % 1017,4 hPa 0,0 l/m 0,2 km/h (0 Bft) O-SO 112 -4,8 C -1,8 C 0,0 km/h (0 Bft)
11.12.2019 10:20 -2,0 C -2,7 C 21,9 C 80 % 58 % 1017,4 hPa 0,0 l/m 0,2 km/h (0 Bft) S-SO 157 -5,0 C -2,0 C 3,1 km/h (1 Bft)
11.12.2019 10:18 -1,8 C -2,7 C 21,9 C 80 % 58 % 1017,4 hPa 0,0 l/m 0,2 km/h (0 Bft) S-SO 157 -4,8 C -1,8 C 3,1 km/h (1 Bft)
11.12.2019 10:16 -2,1 C -2,7 C 21,9 C 80 % 58 % 1017,6 hPa 0,0 l/m 0,0 km/h (0 Bft) S-SO 157 -5,1 C -2,1 C 0,0 km/h (0 Bft)
11.12.2019 10:14 -2,2 C -2,7 C 21,9 C 80 % 58 % 1017,6 hPa 0,0 l/m 0,2 km/h (0 Bft) S 180 -5,2 C -2,2 C 0,0 km/h (0 Bft)
11.12.2019 10:12 -2,3 C -2,8 C 21,9 C 80 % 58 % 1017,6 hPa 0,0 l/m 0,5 km/h (0 Bft) O-NO 67 -5,3 C -2,3 C 0,0 km/h (0 Bft)
11.12.2019 10:10 -2,5 C -3,0 C 21,9 C 80 % 58 % 1017,6 hPa 0,0 l/m 0,5 km/h (0 Bft) O 90 -5,5 C -2,5 C 0,0 km/h (0 Bft)
11.12.2019 10:08 -2,5 C -3,0 C 21,9 C 80 % 58 % 1017,6 hPa 0,0 l/m 0,7 km/h (0 Bft) O-SO 112 -5,5 C -2,5 C 0,0 km/h (0 Bft)
11.12.2019 10:06 -2,5 C -3,0 C 21,9 C 80 % 58 % 1017,6 hPa 0,0 l/m 0,7 km/h (0 Bft) SW 225 -5,5 C -2,5 C 0,0 km/h (0 Bft)
11.12.2019 10:04 -2,5 C -3,0 C 21,9 C 80 % 58 % 1017,6 hPa 0,0 l/m 0,7 km/h (0 Bft) S-SO 157 -5,5 C -2,5 C 0,0 km/h (0 Bft)
11.12.2019 10:02 -2,6 C -3,0 C 21,9 C 80 % 58 % 1017,6 hPa 0,0 l/m 0,5 km/h (0 Bft) S-SO 157 -5,6 C -2,6 C 0,0 km/h (0 Bft)
11.12.2019 10:00 -2,9 C -3,1 C 21,9 C 80 % 58 % 1017,6 hPa 0,0 l/m 1,0 km/h (0 Bft) S-SO 157 -5,9 C -2,9 C 3,1 km/h (1 Bft)
11.12.2019 09:58 -3,0 C -3,2 C 21,9 C 80 % 58 % 1017,6 hPa 0,0 l/m 1,0 km/h (0 Bft) S-SO 157 -6,0 C -3,0 C 3,1 km/h (1 Bft)
11.12.2019 09:56 -3,1 C -3,2 C 21,9 C 80 % 58 % 1017,6 hPa 0,0 l/m 0,7 km/h (0 Bft) S-SO 157 -6,0 C -3,1 C 2,4 km/h (1 Bft)
11.12.2019 09:54 -3,1 C -3,2 C 21,9 C 80 % 58 % 1017,6 hPa 0,0 l/m 0,7 km/h (0 Bft) S-SO 157 -6,0 C -3,1 C 2,4 km/h (1 Bft)
11.12.2019 09:52 -3,1 C -3,2 C 21,9 C 80 % 58 % 1017,6 hPa 0,0 l/m 0,7 km/h (0 Bft) S-SO 157 -6,0 C -3,1 C 3,9 km/h (1 Bft)
11.12.2019 09:50 -3,3 C -3,4 C 21,8 C 80 % 58 % 1017,6 hPa 0,0 l/m 1,0 km/h (0 Bft) SO 135 -6,2 C -3,3 C 3,9 km/h (1 Bft)
11.12.2019 09:48 -3,4 C -3,6 C 21,8 C 80 % 58 % 1017,6 hPa 0,0 l/m 1,0 km/h (0 Bft) SO 135 -6,3 C -3,4 C 0,0 km/h (0 Bft)
11.12.2019 09:46 -3,4 C -3,6 C 21,8 C 80 % 58 % 1017,6 hPa 0,0 l/m 1,7 km/h (1 Bft) S-SO 157 -6,3 C -3,4 C 0,0 km/h (0 Bft)
11.12.2019 09:44 -3,4 C -3,6 C 21,8 C 80 % 58 % 1017,6 hPa 0,0 l/m 2,4 km/h (1 Bft) S-SO 157 -6,3 C -3,4 C 0,0 km/h (0 Bft)
11.12.2019 09:42 -3,5 C -3,5 C 21,8 C 80 % 58 % 1017,6 hPa 0,0 l/m 2,4 km/h (1 Bft) S 180 -6,4 C -3,5 C 3,4 km/h (1 Bft)
11.12.2019 09:40 -3,7 C -3,5 C 21,8 C 79 % 58 % 1017,6 hPa 0,0 l/m 2,4 km/h (1 Bft) S-SO 157 -6,8 C -3,7 C 3,4 km/h (1 Bft)
11.12.2019 09:38 -3,7 C -3,6 C 21,8 C 79 % 58 % 1017,6 hPa 0,0 l/m 2,7 km/h (1 Bft) O-SO 112 -6,8 C -3,7 C 3,9 km/h (1 Bft)
11.12.2019 09:36 -3,8 C -3,8 C 21,8 C 79 % 58 % 1017,7 hPa 0,0 l/m 2,9 km/h (1 Bft) S-SO 157 -6,9 C -3,8 C 3,9 km/h (1 Bft)
11.12.2019 09:34 -3,9 C -3,8 C 21,9 C 79 % 58 % 1017,7 hPa 0,0 l/m 2,2 km/h (1 Bft) S-SO 157 -7,0 C -3,9 C 3,9 km/h (1 Bft)
11.12.2019 09:32 -3,9 C -3,9 C 21,8 C 79 % 58 % 1017,7 hPa 0,0 l/m 1,9 km/h (1 Bft) W 270 -7,0 C -3,9 C 0,0 km/h (0 Bft)
11.12.2019 09:30 -4,0 C -3,9 C 21,8 C 79 % 58 % 1017,7 hPa 0,0 l/m 1,7 km/h (1 Bft) S-SO 157 -7,1 C -4,0 C 4,6 km/h (1 Bft)
11.12.2019 09:28 -4,2 C -4,0 C 21,8 C 79 % 58 % 1017,7 hPa 0,0 l/m 1,4 km/h (1 Bft) S 180 -7,3 C -4,2 C 4,6 km/h (1 Bft)
11.12.2019 09:26 -4,3 C -4,2 C 21,8 C 79 % 58 % 1017,7 hPa 0,0 l/m 0,5 km/h (0 Bft) S 180 -7,4 C -4,3 C 3,6 km/h (1 Bft)
11.12.2019 09:24 -4,4 C -4,2 C 21,8 C 79 % 58 % 1017,7 hPa 0,0 l/m 0,2 km/h (0 Bft) S-SO 157 -7,5 C -4,4 C 3,9 km/h (1 Bft)
11.12.2019 09:22 -4,6 C -4,3 C 21,8 C 79 % 58 % 1017,7 hPa 0,0 l/m 0,2 km/h (0 Bft) S 180 -7,7 C -4,6 C 3,9 km/h (1 Bft)
11.12.2019 09:20 -4,6 C -4,4 C 21,8 C 79 % 58 % 1017,7 hPa 0,0 l/m 0,0 km/h (0 Bft) S-SO 157 -7,7 C -4,6 C 0,0 km/h (0 Bft)
11.12.2019 09:18 -4,6 C -4,4 C 21,8 C 79 % 58 % 1017,7 hPa 0,0 l/m 0,0 km/h (0 Bft) S-SO 157 -7,7 C -4,6 C 0,0 km/h (0 Bft)
11.12.2019 09:16 -4,7 C -4,6 C 21,8 C 79 % 58 % 1017,9 hPa 0,0 l/m 0,0 km/h (0 Bft) SO 135 -7,8 C -4,7 C 0,0 km/h (0 Bft)
11.12.2019 09:14 -4,8 C -4,6 C 21,8 C 79 % 58 % 1017,9 hPa 0,0 l/m 0,0 km/h (0 Bft) SO 135 -7,9 C -4,8 C 0,0 km/h (0 Bft)
11.12.2019 09:12 -4,8 C -4,6 C 21,8 C 79 % 58 % 1017,9 hPa 0,0 l/m 0,0 km/h (0 Bft) SO 135 -7,9 C -4,8 C 0,0 km/h (0 Bft)
11.12.2019 09:10 -5,0 C -4,7 C 21,8 C 79 % 58 % 1017,9 hPa 0,0 l/m 0,0 km/h (0 Bft) SO 135 -8,1 C -5,0 C 0,0 km/h (0 Bft)
11.12.2019 09:08 -5,0 C -4,7 C 21,8 C 79 % 58 % 1017,9 hPa 0,0 l/m 0,0 km/h (0 Bft) SO 135 -8,1 C -5,0 C 0,0 km/h (0 Bft)
11.12.2019 09:06 -5,1 C -4,7 C 21,8 C 79 % 58 % 1017,9 hPa 0,0 l/m 0,0 km/h (0 Bft) O-SO 112 -8,2 C -5,1 C 0,0 km/h (0 Bft)
11.12.2019 09:04 -5,1 C -4,8 C 21,8 C 79 % 58 % 1017,9 hPa 0,0 l/m 0,0 km/h (0 Bft) SO 135 -8,2 C -5,1 C 0,0 km/h (0 Bft)
11.12.2019 09:02 -5,2 C -4,9 C 21,8 C 79 % 58 % 1017,9 hPa 0,0 l/m 0,0 km/h (0 Bft) O-SO 112 -8,3 C -5,2 C 0,0 km/h (0 Bft)
11.12.2019 09:00 -5,4 C -5,1 C 21,8 C 79 % 58 % 1017,9 hPa 0,0 l/m 0,0 km/h (0 Bft) SO 135 -8,5 C -5,4 C 0,0 km/h (0 Bft)
11.12.2019 08:58 -5,6 C -5,1 C 21,8 C 79 % 58 % 1017,9 hPa 0,0 l/m 0,0 km/h (0 Bft) SO 135 -8,6 C -5,6 C 0,0 km/h (0 Bft)
11.12.2019 08:56 -5,6 C -5,1 C 21,7 C 79 % 58 % 1018,1 hPa 0,0 l/m 0,0 km/h (0 Bft) O-SO 112 -8,6 C -5,6 C 0,0 km/h (0 Bft)
11.12.2019 08:54 -5,6 C -5,1 C 21,8 C 79 % 58 % 1018,1 hPa 0,0 l/m 0,0 km/h (0 Bft) S 180 -8,6 C -5,6 C 0,0 km/h (0 Bft)
11.12.2019 08:52 -5,6 C -5,1 C 21,7 C 79 % 58 % 1018,1 hPa 0,0 l/m 0,0 km/h (0 Bft) S-SO 157 -8,6 C -5,6 C 0,0 km/h (0 Bft)
11.12.2019 08:50 -5,5 C -5,2 C 21,7 C 79 % 58 % 1018,1 hPa 0,0 l/m 0,0 km/h (0 Bft) SO 135 -8,5 C -5,5 C 0,0 km/h (0 Bft)
11.12.2019 08:48 -5,7 C -5,6 C 21,7 C 79 % 58 % 1018,1 hPa 0,0 l/m 0,0 km/h (0 Bft) O-SO 112 -8,7 C -5,7 C 0,0 km/h (0 Bft)
11.12.2019 08:46 -5,7 C -5,6 C 21,8 C 78 % 58 % 1018,1 hPa 0,0 l/m 0,0 km/h (0 Bft) O-SO 112 -8,9 C -5,7 C 0,0 km/h (0 Bft)
11.12.2019 08:44 -5,8 C -5,7 C 21,8 C 78 % 58 % 1018,1 hPa 0,0 l/m 0,0 km/h (0 Bft) SO 135 -9,0 C -5,8 C 0,0 km/h (0 Bft)
11.12.2019 08:42 -5,8 C -5,9 C 21,8 C 78 % 58 % 1018,1 hPa 0,0 l/m 0,0 km/h (0 Bft) SO 135 -9,0 C -5,8 C 0,0 km/h (0 Bft)
11.12.2019 08:40 -5,8 C -5,9 C 21,8 C 78 % 58 % 1018,1 hPa 0,0 l/m 0,0 km/h (0 Bft) N-NO 22 -9,0 C -5,8 C 0,0 km/h (0 Bft)
11.12.2019 08:38 -6,0 C -6,0 C 21,7 C 78 % 58 % 1018,1 hPa 0,0 l/m 0,0 km/h (0 Bft) N-NO 22 -9,2 C -6,0 C 0,0 km/h (0 Bft)
11.12.2019 08:36 -6,0 C -6,0 C 21,7 C 78 % 58 % 1018,1 hPa 0,0 l/m 0,0 km/h (0 Bft) N-NO 22 -9,2 C -6,0 C 0,0 km/h (0 Bft)
11.12.2019 08:34 -6,3 C -5,9 C 21,7 C 78 % 58 % 1018,1 hPa 0,0 l/m 0,0 km/h (0 Bft) N-NO 22 -9,5 C -6,3 C 0,0 km/h (0 Bft)
11.12.2019 08:32 -6,3 C -5,9 C 21,7 C 78 % 58 % 1018,1 hPa 0,0 l/m 0,0 km/h (0 Bft) N-NO 22 -9,5 C -6,3 C 0,0 km/h (0 Bft)
11.12.2019 08:30 -6,3 C -5,7 C 21,7 C 78 % 58 % 1018,1 hPa 0,0 l/m 0,0 km/h (0 Bft) N-NO 22 -9,5 C -6,3 C 0,0 km/h (0 Bft)
11.12.2019 08:28 -6,3 C -5,9 C 21,7 C 78 % 58 % 1018,1 hPa 0,0 l/m 0,0 km/h (0 Bft) N-NO 22 -9,5 C -6,3 C 0,0 km/h (0 Bft)
11.12.2019 08:26 -6,3 C -6,0 C 21,7 C 78 % 58 % 1018,1 hPa 0,0 l/m 0,0 km/h (0 Bft) W 270 -9,5 C -6,3 C 0,0 km/h (0 Bft)
11.12.2019 08:24 -6,5 C -6,2 C 21,7 C 78 % 58 % 1018,1 hPa 0,0 l/m 0,0 km/h (0 Bft) W-SW 247 -9,7 C -6,5 C 0,0 km/h (0 Bft)
11.12.2019 08:22 -6,5 C -6,2 C 21,7 C 78 % 58 % 1018,1 hPa 0,0 l/m 0,0 km/h (0 Bft) W 270 -9,7 C -6,5 C 0,0 km/h (0 Bft)
11.12.2019 08:20 -6,6 C -5,9 C 21,7 C 78 % 58 % 1018,1 hPa 0,0 l/m 0,0 km/h (0 Bft) W 270 -9,8 C -6,6 C 0,0 km/h (0 Bft)
11.12.2019 08:18 -6,7 C -5,9 C 21,7 C 78 % 58 % 1018,1 hPa 0,0 l/m 0,0 km/h (0 Bft) W 270 -9,9 C -6,7 C 0,0 km/h (0 Bft)
11.12.2019 08:16 -6,7 C -5,9 C 21,7 C 78 % 58 % 1018,1 hPa 0,0 l/m 0,0 km/h (0 Bft) S-SO 157 -9,9 C -6,7 C 0,0 km/h (0 Bft)
11.12.2019 08:14 -6,7 C -6,0 C 21,7 C 78 % 58 % 1018,1 hPa 0,0 l/m 0,0 km/h (0 Bft) S-SO 157 -9,9 C -6,7 C 0,0 km/h (0 Bft)
11.12.2019 08:12 -6,6 C -6,2 C 21,8 C 78 % 58 % 1018,1 hPa 0,0 l/m 0,0 km/h (0 Bft) S-SO 157 -9,8 C -6,6 C 0,0 km/h (0 Bft)
11.12.2019 08:10 -6,6 C -6,3 C 21,7 C 78 % 58 % 1018,1 hPa 0,0 l/m 0,0 km/h (0 Bft) S-SO 157 -9,8 C -6,6 C 0,0 km/h (0 Bft)
11.12.2019 08:08 -6,6 C -6,3 C 21,7 C 78 % 58 % 1018,1 hPa 0,0 l/m 0,0 km/h (0 Bft) S-SO 157 -9,8 C -6,6 C 0,0 km/h (0 Bft)
11.12.2019 08:06 -6,6 C -6,5 C 21,7 C 78 % 58 % 1018,1 hPa 0,0 l/m 0,0 km/h (0 Bft) S-SO 157 -9,8 C -6,6 C 0,0 km/h (0 Bft)
11.12.2019 08:04 -6,6 C -6,6 C 21,7 C 78 % 58 % 1018,1 hPa 0,0 l/m 0,0 km/h (0 Bft) S-SO 157 -9,8 C -6,6 C 0,0 km/h (0 Bft)
11.12.2019 08:02 -6,6 C -6,5 C 21,7 C 78 % 58 % 1018,1 hPa 0,0 l/m 0,2 km/h (0 Bft) O 90 -9,8 C -6,6 C 0,0 km/h (0 Bft)
11.12.2019 08:00 -6,6 C -6,5 C 21,7 C 78 % 58 % 1018,1 hPa 0,0 l/m 0,7 km/h (0 Bft) O-NO 67 -9,8 C -6,6 C 0,0 km/h (0 Bft)
11.12.2019 07:58 -6,6 C -6,6 C 21,7 C 78 % 58 % 1018,1 hPa 0,0 l/m 1,2 km/h (1 Bft) NO 45 -9,8 C -6,6 C 0,0 km/h (0 Bft)
11.12.2019 07:56 -6,6 C -6,6 C 21,7 C 78 % 58 % 1018,3 hPa 0,0 l/m 1,4 km/h (1 Bft) O-NO 67 -9,8 C -6,6 C 0,0 km/h (0 Bft)
11.12.2019 07:54 -6,5 C -6,6 C 21,7 C 78 % 58 % 1018,3 hPa 0,0 l/m 1,7 km/h (1 Bft) O-NO 67 -9,7 C -6,5 C 2,9 km/h (1 Bft)
11.12.2019 07:52 -6,5 C -6,5 C 21,8 C 78 % 58 % 1018,3 hPa 0,0 l/m 1,7 km/h (1 Bft) O-NO 67 -9,7 C -6,5 C 2,9 km/h (1 Bft)
11.12.2019 07:50 -6,5 C -6,5 C 21,7 C 78 % 58 % 1018,3 hPa 0,0 l/m 1,2 km/h (1 Bft) NO 45 -9,7 C -6,5 C 3,1 km/h (1 Bft)
11.12.2019 07:48 -6,5 C -6,6 C 21,7 C 78 % 58 % 1018,3 hPa 0,0 l/m 1,4 km/h (1 Bft) NO 45 -9,7 C -6,5 C 3,4 km/h (1 Bft)
11.12.2019 07:46 -6,6 C -6,6 C 21,7 C 78 % 58 % 1018,3 hPa 0,0 l/m 1,7 km/h (1 Bft) NO 45 -9,8 C -6,6 C 3,4 km/h (1 Bft)
11.12.2019 07:44 -6,6 C -6,6 C 21,8 C 78 % 58 % 1018,3 hPa 0,0 l/m 2,2 km/h (1 Bft) NO 45 -9,8 C -6,6 C 2,7 km/h (1 Bft)
11.12.2019 07:42 -6,6 C -6,6 C 21,7 C 78 % 58 % 1018,3 hPa 0,0 l/m 2,9 km/h (1 Bft) SW 225 -9,8 C -6,6 C 2,9 km/h (1 Bft)
11.12.2019 07:40 -6,5 C -6,6 C 21,8 C 78 % 58 % 1018,3 hPa 0,0 l/m 4,1 km/h (1 Bft) NO 45 -9,7 C -6,5 C 4,1 km/h (1 Bft)
11.12.2019 07:38 -6,5 C -6,6 C 21,7 C 78 % 58 % 1018,3 hPa 0,0 l/m 4,1 km/h (1 Bft) NO 45 -9,7 C -6,5 C 4,3 km/h (1 Bft)
11.12.2019 07:36 -6,5 C -6,6 C 21,7 C 78 % 58 % 1018,4 hPa 0,0 l/m 3,9 km/h (1 Bft) NO 45 -9,7 C -6,5 C 4,3 km/h (1 Bft)
11.12.2019 07:34 -6,5 C -6,6 C 21,7 C 78 % 58 % 1018,4 hPa 0,0 l/m 3,6 km/h (1 Bft) N-NO 22 -9,7 C -6,5 C 5,6 km/h (1 Bft)
11.12.2019 07:32 -6,5 C -6,6 C 21,8 C 78 % 58 % 1018,4 hPa 0,0 l/m 3,6 km/h (1 Bft) N-NO 22 -9,7 C -6,5 C 5,6 km/h (1 Bft)
11.12.2019 07:30 -6,5 C -7,0 C 21,7 C 78 % 58 % 1018,4 hPa 0,0 l/m 3,4 km/h (1 Bft) NO 45 -9,7 C -6,5 C 5,6 km/h (1 Bft)
11.12.2019 07:28 -6,5 C -7,0 C 21,7 C 78 % 58 % 1018,4 hPa 0,0 l/m 3,4 km/h (1 Bft) N-NO 22 -9,7 C -6,5 C 4,1 km/h (1 Bft)
11.12.2019 07:26 -6,5 C -6,6 C 21,8 C 78 % 58 % 1018,4 hPa 0,0 l/m 3,6 km/h (1 Bft) N-NO 22 -9,7 C -6,5 C 3,4 km/h (1 Bft)
11.12.2019 07:24 -6,5 C -6,6 C 21,8 C 78 % 58 % 1018,4 hPa 0,0 l/m 3,4 km/h (1 Bft) NO 45 -9,7 C -6,5 C 4,3 km/h (1 Bft)
11.12.2019 07:22 -6,5 C -6,6 C 21,7 C 78 % 58 % 1018,4 hPa 0,0 l/m 2,7 km/h (1 Bft) NO 45 -9,7 C -6,5 C 4,6 km/h (1 Bft)
11.12.2019 07:20 -6,5 C -7,0 C 21,8 C 78 % 58 % 1018,4 hPa 0,0 l/m 2,2 km/h (1 Bft) NO 45 -9,7 C -6,5 C 4,6 km/h (1 Bft)
11.12.2019 07:18 -6,5 C -7,0 C 21,7 C 78 % 58 % 1018,4 hPa 0,0 l/m 1,4 km/h (1 Bft) NO 45 -9,7 C -6,5 C 4,6 km/h (1 Bft)
11.12.2019 07:16 -6,5 C -7,0 C 21,7 C 78 % 58 % 1018,6 hPa 0,0 l/m 0,7 km/h (0 Bft) NO 45 -9,7 C -6,5 C 3,1 km/h (1 Bft)
11.12.2019 07:14 -6,5 C -7,0 C 21,7 C 78 % 58 % 1018,6 hPa 0,0 l/m 0,5 km/h (0 Bft) N-NO 22 -9,7 C -6,5 C 2,9 km/h (1 Bft)
11.12.2019 07:12 -6,5 C -7,0 C 21,7 C 78 % 58 % 1018,6 hPa 0,0 l/m 0,5 km/h (0 Bft) NO 45 -9,7 C -6,5 C 0,0 km/h (0 Bft)
11.12.2019 07:10 -6,5 C -7,0 C 21,8 C 78 % 58 % 1018,6 hPa 0,0 l/m 1,0 km/h (0 Bft) N-NO 22 -9,7 C -6,5 C 0,0 km/h (0 Bft)
11.12.2019 07:08 -6,5 C -6,8 C 21,7 C 78 % 58 % 1018,6 hPa 0,0 l/m 1,4 km/h (1 Bft) NO 45 -9,7 C -6,5 C 0,0 km/h (0 Bft)
11.12.2019 07:06 -6,5 C -6,6 C 21,7 C 78 % 58 % 1018,6 hPa 0,0 l/m 2,2 km/h (1 Bft) N-NO 22 -9,7 C -6,5 C 0,0 km/h (0 Bft)
11.12.2019 07:04 -6,3 C -6,6 C 21,7 C 78 % 58 % 1018,6 hPa 0,0 l/m 2,9 km/h (1 Bft) NW 315 -9,5 C -6,3 C 2,4 km/h (1 Bft)
11.12.2019 07:02 -6,3 C -6,5 C 21,7 C 78 % 58 % 1018,6 hPa 0,0 l/m 3,4 km/h (1 Bft) NW 315 -9,5 C -6,3 C 3,4 km/h (1 Bft)
11.12.2019 07:00 -6,3 C -6,5 C 21,7 C 78 % 58 % 1018,6 hPa 0,0 l/m 3,6 km/h (1 Bft) N-NO 22 -9,5 C -6,3 C 4,1 km/h (1 Bft)
11.12.2019 06:58 -6,3 C -6,5 C 21,7 C 78 % 58 % 1018,6 hPa 0,0 l/m 3,6 km/h (1 Bft) NO 45 -9,5 C -6,3 C 4,8 km/h (1 Bft)
11.12.2019 06:56 -6,3 C -6,5 C 21,7 C 78 % 58 % 1018,2 hPa 0,0 l/m 3,6 km/h (1 Bft) NO 45 -9,5 C -6,3 C 4,8 km/h (1 Bft)
11.12.2019 06:54 -6,3 C -6,6 C 21,7 C 78 % 58 % 1018,2 hPa 0,0 l/m 3,6 km/h (1 Bft) NO 45 -9,5 C -6,3 C 4,3 km/h (1 Bft)
11.12.2019 06:52 -6,3 C -6,6 C 21,7 C 78 % 58 % 1018,2 hPa 0,0 l/m 3,6 km/h (1 Bft) N-NO 22 -9,5 C -6,3 C 3,1 km/h (1 Bft)
11.12.2019 06:50 -6,3 C -6,5 C 21,7 C 78 % 58 % 1018,2 hPa 0,0 l/m 3,9 km/h (1 Bft) NO 45 -9,5 C -6,3 C 3,9 km/h (1 Bft)
11.12.2019 06:48 -6,3 C -6,6 C 21,7 C 78 % 58 % 1018,2 hPa 0,0 l/m 4,1 km/h (1 Bft) NO 45 -9,5 C -6,3 C 4,3 km/h (1 Bft)
11.12.2019 06:46 -6,3 C -6,6 C 21,7 C 78 % 58 % 1018,2 hPa 0,0 l/m 3,6 km/h (1 Bft) NO 45 -9,5 C -6,3 C 4,3 km/h (1 Bft)
11.12.2019 06:44 -6,3 C -6,6 C 21,7 C 78 % 58 % 1018,2 hPa 0,0 l/m 3,1 km/h (1 Bft) N-NO 22 -9,5 C -6,3 C 4,1 km/h (1 Bft)
11.12.2019 06:42 -6,3 C -6,6 C 21,7 C 78 % 58 % 1018,2 hPa 0,0 l/m 2,4 km/h (1 Bft) N-NO 22 -9,5 C -6,3 C 4,8 km/h (1 Bft)
11.12.2019 06:40 -6,3 C -6,8 C 21,7 C 78 % 58 % 1018,2 hPa 0,0 l/m 2,2 km/h (1 Bft) N-NO 22 -9,5 C -6,3 C 4,8 km/h (1 Bft)
11.12.2019 06:38 -6,3 C -7,0 C 21,7 C 78 % 58 % 1018,2 hPa 0,0 l/m 1,9 km/h (1 Bft) O-NO 67 -9,5 C -6,3 C 4,8 km/h (1 Bft)
11.12.2019 06:36 -6,3 C -6,8 C 21,7 C 78 % 58 % 1018,2 hPa 0,0 l/m 1,9 km/h (1 Bft) NO 45 -9,5 C -6,3 C 3,1 km/h (1 Bft)
11.12.2019 06:34 -6,3 C -6,8 C 21,7 C 78 % 58 % 1018,2 hPa 0,0 l/m 1,9 km/h (1 Bft) N-NO 22 -9,5 C -6,3 C 0,0 km/h (0 Bft)
11.12.2019 06:32 -6,1 C -6,6 C 21,7 C 78 % 58 % 1018,2 hPa 0,0 l/m 2,9 km/h (1 Bft) N-NW 337 -9,3 C -6,1 C 3,6 km/h (1 Bft)
11.12.2019 06:30 -6,1 C -6,6 C 21,7 C 78 % 58 % 1018,2 hPa 0,0 l/m 3,1 km/h (1 Bft) N-NO 22 -9,3 C -6,1 C 4,6 km/h (1 Bft)
11.12.2019 06:28 -6,1 C -6,6 C 21,7 C 78 % 58 % 1018,2 hPa 0,0 l/m 3,4 km/h (1 Bft) NO 45 -9,3 C -6,1 C 4,6 km/h (1 Bft)
11.12.2019 06:26 -6,1 C -6,5 C 21,7 C 78 % 58 % 1018,2 hPa 0,0 l/m 2,9 km/h (1 Bft) NO 45 -9,3 C -6,1 C 3,4 km/h (1 Bft)
11.12.2019 06:24 -6,1 C -6,6 C 21,7 C 78 % 58 % 1018,2 hPa 0,0 l/m 2,4 km/h (1 Bft) O-NO 67 -9,3 C -6,1 C 4,3 km/h (1 Bft)
11.12.2019 06:22 -6,3 C -6,6 C 21,7 C 78 % 58 % 1018,2 hPa 0,0 l/m 2,4 km/h (1 Bft) NO 45 -9,5 C -6,3 C 4,3 km/h (1 Bft)
11.12.2019 06:20 -6,3 C -6,5 C 21,7 C 78 % 58 % 1018,2 hPa 0,0 l/m 2,4 km/h (1 Bft) N-NO 22 -9,5 C -6,3 C 4,8 km/h (1 Bft)
11.12.2019 06:18 -6,2 C -6,5 C 21,7 C 78 % 58 % 1018,2 hPa 0,0 l/m 2,7 km/h (1 Bft) N-NO 22 -9,4 C -6,2 C 4,8 km/h (1 Bft)
11.12.2019 06:16 -6,2 C -6,3 C 21,7 C 78 % 58 % 1018,5 hPa 0,0 l/m 2,9 km/h (1 Bft) N-NW 337 -9,4 C -6,2 C 0,0 km/h (0 Bft)
11.12.2019 06:14 -6,0 C -6,3 C 21,7 C 78 % 58 % 1018,5 hPa 0,0 l/m 3,1 km/h (1 Bft) W-NW 292 -9,2 C -6,0 C 3,4 km/h (1 Bft)
11.12.2019 06:12 -6,0 C -6,3 C 21,7 C 78 % 58 % 1018,5 hPa 0,0 l/m 4,3 km/h (1 Bft) NO 45 -9,2 C -6,0 C 5,6 km/h (1 Bft)
11.12.2019 06:10 -6,0 C -6,3 C 21,7 C 78 % 58 % 1018,5 hPa 0,0 l/m 1,7 km/h (1 Bft) NO 45 -9,2 C -6,0 C 5,6 km/h (1 Bft)
11.12.2019 06:08 -6,0 C -6,3 C 21,7 C 78 % 58 % 1018,5 hPa 0,0 l/m 1,7 km/h (1 Bft) NO 45 -9,2 C -6,0 C 5,6 km/h (1 Bft)
11.12.2019 06:06 -6,0 C -6,3 C 21,7 C 78 % 58 % 1018,5 hPa 0,0 l/m 1,7 km/h (1 Bft) NO 45 -9,2 C -6,0 C 5,6 km/h (1 Bft)
11.12.2019 06:04 -6,0 C -6,3 C 21,7 C 78 % 58 % 1018,5 hPa 0,0 l/m 1,7 km/h (1 Bft) NO 45 -9,2 C -6,0 C 5,6 km/h (1 Bft)
11.12.2019 06:02 -6,0 C -6,3 C 21,7 C 78 % 58 % 1018,5 hPa 0,0 l/m 1,7 km/h (1 Bft) NO 45 -9,2 C -6,0 C 5,6 km/h (1 Bft)
11.12.2019 06:00 -6,0 C -6,3 C 21,7 C 78 % 58 % 1018,5 hPa 0,0 l/m 1,7 km/h (1 Bft) NO 45 -9,2 C -6,0 C 3,6 km/h (1 Bft)
11.12.2019 05:58 -5,9 C -6,3 C 21,7 C 78 % 58 % 1018,5 hPa 0,0 l/m 1,9 km/h (1 Bft) N-NO 22 -9,1 C -5,9 C 2,7 km/h (1 Bft)
11.12.2019 05:56 -5,9 C -6,3 C 21,7 C 78 % 58 % 1018,8 hPa 0,0 l/m 2,2 km/h (1 Bft) O-NO 67 -9,1 C -5,9 C 0,0 km/h (0 Bft)
11.12.2019 05:54 -5,9 C -6,2 C 21,7 C 78 % 58 % 1018,8 hPa 0,0 l/m 2,9 km/h (1 Bft) N-NW 337 -9,1 C -5,9 C 0,0 km/h (0 Bft)
11.12.2019 05:52 -5,9 C -6,3 C 21,7 C 78 % 58 % 1018,8 hPa 0,0 l/m 3,6 km/h (1 Bft) N-NO 22 -9,1 C -5,9 C 6,3 km/h (2 Bft)
11.12.2019 05:50 -6,0 C -6,5 C 21,7 C 78 % 58 % 1018,8 hPa 0,0 l/m 3,6 km/h (1 Bft) N-NO 22 -9,2 C -6,0 C 6,3 km/h (2 Bft)
11.12.2019 05:48 -6,2 C -6,5 C 21,7 C 78 % 58 % 1018,8 hPa 0,0 l/m 3,4 km/h (1 Bft) NO 45 -9,4 C -6,2 C 5,1 km/h (1 Bft)
11.12.2019 05:46 -6,2 C -6,5 C 21,7 C 78 % 58 % 1018,8 hPa 0,0 l/m 3,1 km/h (1 Bft) N-NW 337 -9,4 C -6,2 C 5,6 km/h (1 Bft)
11.12.2019 05:44 -6,2 C -6,5 C 21,7 C 78 % 58 % 1018,8 hPa 0,0 l/m 2,4 km/h (1 Bft) N-NO 22 -9,4 C -6,2 C 5,6 km/h (1 Bft)
11.12.2019 05:42 -6,2 C -6,5 C 21,7 C 78 % 58 % 1018,8 hPa 0,0 l/m 1,9 km/h (1 Bft) NO 45 -9,4 C -6,2 C 4,8 km/h (1 Bft)
11.12.2019 05:40 -6,0 C -6,6 C 21,7 C 78 % 58 % 1018,8 hPa 0,0 l/m 1,9 km/h (1 Bft) NO 45 -9,2 C -6,0 C 4,3 km/h (1 Bft)
11.12.2019 05:38 -6,0 C -6,3 C 21,7 C 78 % 58 % 1018,8 hPa 0,0 l/m 2,2 km/h (1 Bft) NO 45 -9,2 C -6,0 C 3,6 km/h (1 Bft)
11.12.2019 05:36 -6,0 C -6,3 C 21,7 C 78 % 58 % 1018,4 hPa 0,0 l/m 2,9 km/h (1 Bft) N-NO 22 -9,2 C -6,0 C 0,0 km/h (0 Bft)
11.12.2019 05:34 -5,9 C -6,2 C 21,7 C 78 % 58 % 1018,4 hPa 0,0 l/m 2,9 km/h (1 Bft) O-SO 112 -9,1 C -5,9 C 3,6 km/h (1 Bft)
11.12.2019 05:32 -5,9 C -6,3 C 21,7 C 78 % 58 % 1018,4 hPa 0,0 l/m 3,9 km/h (1 Bft) NO 45 -9,1 C -5,9 C 4,1 km/h (1 Bft)
11.12.2019 05:30 -5,9 C -6,3 C 21,7 C 78 % 58 % 1018,4 hPa 0,0 l/m 4,1 km/h (1 Bft) N-NO 22 -9,1 C -5,9 C 6,3 km/h (2 Bft)
11.12.2019 05:28 -5,9 C -6,3 C 21,7 C 78 % 58 % 1018,4 hPa 0,0 l/m 4,3 km/h (1 Bft) N-NO 22 -9,1 C -5,9 C 6,3 km/h (2 Bft)
11.12.2019 05:26 -6,0 C -6,2 C 21,7 C 78 % 58 % 1018,4 hPa 0,0 l/m 3,9 km/h (1 Bft) N-NO 22 -9,2 C -6,0 C 5,6 km/h (1 Bft)
11.12.2019 05:24 -5,9 C -6,2 C 21,7 C 78 % 58 % 1018,4 hPa 0,0 l/m 4,1 km/h (1 Bft) NO 45 -9,1 C -5,9 C 4,3 km/h (1 Bft)
11.12.2019 05:22 -5,9 C -6,0 C 21,7 C 78 % 58 % 1018,4 hPa 0,0 l/m 4,3 km/h (1 Bft) NO 45 -9,1 C -5,9 C 6,3 km/h (2 Bft)
11.12.2019 05:20 -5,9 C -6,2 C 21,7 C 78 % 58 % 1018,4 hPa 0,0 l/m 3,6 km/h (1 Bft) NO 45 -9,1 C -5,9 C 7,2 km/h (2 Bft)
11.12.2019 05:18 -6,0 C -6,5 C 21,7 C 78 % 58 % 1018,4 hPa 0,0 l/m 3,1 km/h (1 Bft) NO 45 -9,2 C -6,0 C 7,2 km/h (2 Bft)
11.12.2019 05:16 -5,9 C -6,3 C 21,7 C 78 % 58 % 1018,6 hPa 0,0 l/m 3,1 km/h (1 Bft) N-NO 22 -9,1 C -5,9 C 5,6 km/h (1 Bft)
11.12.2019 05:14 -6,0 C -6,5 C 21,7 C 77 % 58 % 1018,6 hPa 0,0 l/m 2,9 km/h (1 Bft) NO 45 -9,4 C -6,0 C 4,8 km/h (1 Bft)
11.12.2019 05:12 -6,2 C -6,5 C 21,7 C 77 % 58 % 1018,6 hPa 0,0 l/m 2,4 km/h (1 Bft) N-NO 22 -9,6 C -6,2 C 3,6 km/h (1 Bft)
11.12.2019 05:10 -6,0 C -6,5 C 21,7 C 77 % 58 % 1018,6 hPa 0,0 l/m 2,7 km/h (1 Bft) N-NO 22 -9,4 C -6,0 C 4,3 km/h (1 Bft)
11.12.2019 05:08 -6,0 C -6,3 C 21,7 C 77 % 58 % 1018,6 hPa 0,0 l/m 1,7 km/h (1 Bft) N-NO 22 -9,4 C -6,0 C 4,6 km/h (1 Bft)
11.12.2019 05:06 -6,0 C -6,6 C 21,7 C 77 % 58 % 1018,6 hPa 0,0 l/m 1,4 km/h (1 Bft) N-NO 22 -9,4 C -6,0 C 4,6 km/h (1 Bft)
11.12.2019 05:04 -6,0 C -6,6 C 21,7 C 77 % 58 % 1018,6 hPa 0,0 l/m 1,0 km/h (0 Bft) N-NO 22 -9,4 C -6,0 C 3,4 km/h (1 Bft)
11.12.2019 05:02 -6,0 C -6,3 C 21,7 C 77 % 58 % 1018,6 hPa 0,0 l/m 1,4 km/h (1 Bft) NO 45 -9,4 C -6,0 C 2,7 km/h (1 Bft)
11.12.2019 05:00 -6,0 C -6,2 C 21,7 C 77 % 58 % 1018,6 hPa 0,0 l/m 1,4 km/h (1 Bft) NO 45 -9,4 C -6,0 C 2,4 km/h (1 Bft)
11.12.2019 04:58 -6,0 C -6,2 C 21,7 C 77 % 58 % 1018,6 hPa 0,0 l/m 1,4 km/h (1 Bft) O-NO 67 -9,4 C -6,0 C 0,0 km/h (0 Bft)
11.12.2019 04:56 -6,0 C -6,2 C 21,7 C 77 % 58 % 1018,8 hPa 0,0 l/m 1,4 km/h (1 Bft) O-NO 67 -9,4 C -6,0 C 0,0 km/h (0 Bft)
11.12.2019 04:54 -5,9 C -6,3 C 21,7 C 77 % 58 % 1018,8 hPa 0,0 l/m 1,2 km/h (1 Bft) O-NO 67 -9,3 C -5,9 C 3,4 km/h (1 Bft)
11.12.2019 04:52 -5,9 C -6,2 C 21,7 C 77 % 58 % 1018,8 hPa 0,0 l/m 1,0 km/h (0 Bft) NO 45 -9,3 C -5,9 C 3,6 km/h (1 Bft)
11.12.2019 04:50 -6,0 C -6,5 C 21,7 C 77 % 58 % 1018,8 hPa 0,0 l/m 1,0 km/h (0 Bft) NO 45 -9,4 C -6,0 C 3,6 km/h (1 Bft)
11.12.2019 04:48 -6,0 C -6,5 C 21,7 C 77 % 58 % 1018,8 hPa 0,0 l/m 1,0 km/h (0 Bft) O-NO 67 -9,4 C -6,0 C 0,0 km/h (0 Bft)
11.12.2019 04:46 -5,9 C -6,5 C 21,7 C 77 % 58 % 1018,8 hPa 0,0 l/m 1,0 km/h (0 Bft) W-SW 247 -9,3 C -5,9 C 0,0 km/h (0 Bft)
11.12.2019 04:44 -6,0 C -6,3 C 21,7 C 77 % 58 % 1018,8 hPa 0,0 l/m 1,0 km/h (0 Bft) W-SW 247 -9,4 C -6,0 C 0,0 km/h (0 Bft)
11.12.2019 04:42 -6,0 C -6,2 C 21,7 C 77 % 58 % 1018,8 hPa 0,0 l/m 1,0 km/h (0 Bft) NO 45 -9,4 C -6,0 C 4,6 km/h (1 Bft)
11.12.2019 04:40 -5,9 C -6,3 C 21,7 C 77 % 58 % 1018,8 hPa 0,0 l/m 0,7 km/h (0 Bft) O-NO 67 -9,3 C -5,9 C 4,6 km/h (1 Bft)
11.12.2019 04:38 -6,0 C -6,6 C 21,7 C 77 % 58 % 1018,8 hPa 0,0 l/m 0,0 km/h (0 Bft) NO 45 -9,4 C -6,0 C 0,0 km/h (0 Bft)
11.12.2019 04:36 -6,0 C -6,8 C 21,7 C 77 % 58 % 1019,1 hPa 0,0 l/m 0,0 km/h (0 Bft) W-NW 292 -9,4 C -6,0 C 0,0 km/h (0 Bft)
11.12.2019 04:34 -6,0 C -6,8 C 21,7 C 77 % 58 % 1019,1 hPa 0,0 l/m 0,0 km/h (0 Bft) W-NW 292 -9,4 C -6,0 C 0,0 km/h (0 Bft)
11.12.2019 04:32 -6,2 C -6,8 C 21,7 C 77 % 58 % 1019,1 hPa 0,0 l/m 0,0 km/h (0 Bft) NO 45 -9,6 C -6,2 C 0,0 km/h (0 Bft)
11.12.2019 04:30 -6,0 C -7,0 C 21,7 C 77 % 58 % 1019,1 hPa 0,0 l/m 0,0 km/h (0 Bft) O-NO 67 -9,4 C -6,0 C 0,0 km/h (0 Bft)
11.12.2019 04:28 -6,0 C -6,8 C 21,7 C 77 % 58 % 1019,1 hPa 0,0 l/m 0,0 km/h (0 Bft) O-SO 112 -9,4 C -6,0 C 0,0 km/h (0 Bft)
11.12.2019 04:26 -6,0 C -6,6 C 21,7 C 77 % 58 % 1019,1 hPa 0,0 l/m 0,0 km/h (0 Bft) SW 225 -9,4 C -6,0 C 0,0 km/h (0 Bft)
11.12.2019 04:24 -6,0 C -6,5 C 21,7 C 77 % 58 % 1019,1 hPa 0,0 l/m 0,0 km/h (0 Bft) O-NO 67 -9,4 C -6,0 C 0,0 km/h (0 Bft)
11.12.2019 04:22 -6,0 C -6,6 C 21,7 C 77 % 58 % 1019,1 hPa 0,0 l/m 0,0 km/h (0 Bft) O-NO 67 -9,4 C -6,0 C 0,0 km/h (0 Bft)
11.12.2019 04:20 -6,0 C -6,6 C 21,7 C 77 % 58 % 1019,1 hPa 0,0 l/m 0,0 km/h (0 Bft) O-NO 67 -9,4 C -6,0 C 0,0 km/h (0 Bft)
11.12.2019 04:18 -6,0 C -6,5 C 21,7 C 77 % 58 % 1019,1 hPa 0,0 l/m 0,0 km/h (0 Bft) SO 135 -9,4 C -6,0 C 0,0 km/h (0 Bft)
11.12.2019 04:16 -6,0 C -6,3 C 21,7 C 77 % 58 % 1019,3 hPa 0,0 l/m 0,0 km/h (0 Bft) S-SO 157 -9,4 C -6,0 C 0,0 km/h (0 Bft)
11.12.2019 04:14 -5,9 C -6,5 C 21,7 C 77 % 58 % 1019,3 hPa 0,0 l/m 0,0 km/h (0 Bft) S 180 -9,3 C -5,9 C 0,0 km/h (0 Bft)
11.12.2019 04:12 -6,0 C -6,5 C 21,7 C 77 % 58 % 1019,3 hPa 0,0 l/m 0,0 km/h (0 Bft) S 180 -9,4 C -6,0 C 0,0 km/h (0 Bft)
11.12.2019 04:10 -5,9 C -6,3 C 21,7 C 77 % 58 % 1019,3 hPa 0,0 l/m 0,0 km/h (0 Bft) S 180 -9,3 C -5,9 C 0,0 km/h (0 Bft)
11.12.2019 04:08 -5,9 C -6,3 C 21,7 C 77 % 58 % 1019,3 hPa 0,0 l/m 0,0 km/h (0 Bft) S 180 -9,3 C -5,9 C 0,0 km/h (0 Bft)
11.12.2019 04:06 -5,7 C -6,3 C 21,7 C 77 % 58 % 1019,3 hPa 0,0 l/m 0,2 km/h (0 Bft) S 180 -9,1 C -5,7 C 0,0 km/h (0 Bft)
11.12.2019 04:04 -5,7 C -6,5 C 21,7 C 77 % 58 % 1019,3 hPa 0,0 l/m 0,5 km/h (0 Bft) S 180 -9,1 C -5,7 C 0,0 km/h (0 Bft)
11.12.2019 04:02 -5,7 C -6,5 C 21,7 C 77 % 58 % 1019,3 hPa 0,0 l/m 0,5 km/h (0 Bft) S 180 -9,1 C -5,7 C 0,0 km/h (0 Bft)
11.12.2019 04:00 -5,6 C -6,5 C 21,7 C 77 % 58 % 1019,3 hPa 0,0 l/m 0,5 km/h (0 Bft) S-SO 157 -9,0 C -5,6 C 0,0 km/h (0 Bft)
11.12.2019 03:58 -5,6 C -6,2 C 21,7 C 77 % 58 % 1019,3 hPa 0,0 l/m 0,7 km/h (0 Bft) S-SO 157 -9,0 C -5,6 C 2,4 km/h (1 Bft)
11.12.2019 03:56 -5,6 C -6,4 C 21,7 C 77 % 58 % 1019,4 hPa 0,0 l/m 1,2 km/h (1 Bft) S-SO 157 -9,0 C -5,6 C 2,4 km/h (1 Bft)
11.12.2019 03:54 -5,7 C -6,5 C 21,7 C 77 % 58 % 1019,4 hPa 0,0 l/m 1,4 km/h (1 Bft) SO 135 -9,1 C -5,7 C 2,4 km/h (1 Bft)
11.12.2019 03:52 -5,7 C -6,5 C 21,7 C 77 % 58 % 1019,4 hPa 0,0 l/m 1,7 km/h (1 Bft) O-NO 67 -9,1 C -5,7 C 0,0 km/h (0 Bft)
11.12.2019 03:50 -5,6 C -6,4 C 21,7 C 77 % 58 % 1019,4 hPa 0,0 l/m 2,2 km/h (1 Bft) NO 45 -9,0 C -5,6 C 2,4 km/h (1 Bft)
11.12.2019 03:48 -5,6 C -6,2 C 21,7 C 77 % 58 % 1019,4 hPa 0,0 l/m 2,9 km/h (1 Bft) O-NO 67 -9,0 C -5,6 C 4,1 km/h (1 Bft)
11.12.2019 03:46 -5,6 C -6,4 C 21,7 C 77 % 58 % 1019,4 hPa 0,0 l/m 3,4 km/h (1 Bft) NO 45 -9,0 C -5,6 C 4,1 km/h (1 Bft)
11.12.2019 03:44 -5,6 C -6,2 C 21,7 C 77 % 58 % 1019,4 hPa 0,0 l/m 3,6 km/h (1 Bft) NO 45 -9,0 C -5,6 C 4,1 km/h (1 Bft)
11.12.2019 03:42 -5,6 C -5,9 C 21,8 C 77 % 58 % 1019,4 hPa 0,0 l/m 3,6 km/h (1 Bft) NO 45 -9,0 C -5,6 C 3,9 km/h (1 Bft)
11.12.2019 03:40 -5,4 C -5,7 C 21,7 C 77 % 58 % 1019,4 hPa 0,0 l/m 3,4 km/h (1 Bft) NO 45 -8,8 C -5,4 C 4,3 km/h (1 Bft)
11.12.2019 03:38 -5,4 C -5,9 C 21,7 C 77 % 58 % 1019,4 hPa 0,0 l/m 2,7 km/h (1 Bft) NO 45 -8,8 C -5,4 C 4,6 km/h (1 Bft)
11.12.2019 03:36 -5,4 C -6,0 C 21,7 C 77 % 58 % 1019,4 hPa 0,0 l/m 1,9 km/h (1 Bft) NO 45 -8,8 C -5,4 C 6,5 km/h (2 Bft)
11.12.2019 03:34 -5,4 C -6,4 C 21,7 C 77 % 58 % 1019,4 hPa 0,0 l/m 1,2 km/h (1 Bft) N-NO 22 -8,8 C -5,4 C 6,5 km/h (2 Bft)
11.12.2019 03:32 -5,6 C -6,7 C 21,7 C 77 % 58 % 1019,4 hPa 0,0 l/m 0,2 km/h (0 Bft) O-NO 67 -9,0 C -5,6 C 3,4 km/h (1 Bft)
11.12.2019 03:30 -5,6 C -6,5 C 21,7 C 77 % 58 % 1019,4 hPa 0,0 l/m 0,0 km/h (0 Bft) NO 45 -9,0 C -5,6 C 0,0 km/h (0 Bft)
11.12.2019 03:28 -5,6 C -6,4 C 21,8 C 77 % 58 % 1019,4 hPa 0,0 l/m 0,2 km/h (0 Bft) N-NO 22 -9,0 C -5,6 C 0,0 km/h (0 Bft)
11.12.2019 03:26 -5,6 C -6,2 C 21,7 C 77 % 58 % 1019,4 hPa 0,0 l/m 0,5 km/h (0 Bft) N-NO 22 -9,0 C -5,6 C 0,0 km/h (0 Bft)
11.12.2019 03:24 -5,6 C -6,2 C 21,8 C 77 % 58 % 1019,4 hPa 0,0 l/m 0,5 km/h (0 Bft) N-NW 337 -9,0 C -5,6 C 0,0 km/h (0 Bft)
11.12.2019 03:22 -5,6 C -6,2 C 21,8 C 77 % 58 % 1019,4 hPa 0,0 l/m 0,5 km/h (0 Bft) NW 315 -9,0 C -5,6 C 0,0 km/h (0 Bft)
11.12.2019 03:20 -5,4 C -6,2 C 21,8 C 77 % 58 % 1019,4 hPa 0,0 l/m 0,5 km/h (0 Bft) N 360 -8,8 C -5,4 C 0,0 km/h (0 Bft)
11.12.2019 03:18 -5,4 C -6,4 C 21,8 C 77 % 58 % 1019,4 hPa 0,0 l/m 0,7 km/h (0 Bft) N-NO 22 -8,8 C -5,4 C 2,7 km/h (1 Bft)
11.12.2019 03:16 -5,4 C -6,4 C 21,8 C 77 % 58 % 1019,2 hPa 0,0 l/m 1,4 km/h (1 Bft) NO 45 -8,8 C -5,4 C 2,7 km/h (1 Bft)
11.12.2019 03:14 -5,4 C -6,4 C 21,8 C 77 % 58 % 1019,2 hPa 0,0 l/m 1,9 km/h (1 Bft) NO 45 -8,8 C -5,4 C 0,0 km/h (0 Bft)
11.12.2019 03:12 -5,4 C -6,4 C 21,8 C 77 % 58 % 1019,2 hPa 0,0 l/m 2,2 km/h (1 Bft) NO 45 -8,8 C -5,4 C 0,0 km/h (0 Bft)
11.12.2019 03:10 -5,2 C -6,0 C 21,8 C 77 % 58 % 1019,2 hPa 0,0 l/m 0,7 km/h (0 Bft) N-NO 22 -8,6 C -5,2 C 0,0 km/h (0 Bft)
11.12.2019 03:08 -5,2 C -6,0 C 21,8 C 77 % 58 % 1019,2 hPa 0,0 l/m 0,7 km/h (0 Bft) N-NO 22 -8,6 C -5,2 C 0,0 km/h (0 Bft)
11.12.2019 03:06 -5,2 C -6,0 C 21,8 C 77 % 58 % 1019,2 hPa 0,0 l/m 0,7 km/h (0 Bft) N-NO 22 -8,6 C -5,2 C 0,0 km/h (0 Bft)
11.12.2019 03:04 -5,2 C -6,0 C 21,8 C 77 % 58 % 1019,2 hPa 0,0 l/m 0,7 km/h (0 Bft) N-NO 22 -8,6 C -5,2 C 0,0 km/h (0 Bft)
11.12.2019 03:02 -5,2 C -6,0 C 21,8 C 77 % 58 % 1019,2 hPa 0,0 l/m 0,7 km/h (0 Bft) N-NO 22 -8,6 C -5,2 C 0,0 km/h (0 Bft)
11.12.2019 03:00 -5,2 C -6,0 C 21,8 C 77 % 58 % 1019,2 hPa 0,0 l/m 1,0 km/h (0 Bft) N-NO 22 -8,6 C -5,2 C 0,0 km/h (0 Bft)
11.12.2019 02:58 -5,2 C -6,0 C 21,8 C 77 % 58 % 1019,2 hPa 0,0 l/m 1,9 km/h (1 Bft) N-NO 22 -8,6 C -5,2 C 0,0 km/h (0 Bft)
11.12.2019 02:56 -5,2 C -6,0 C 21,8 C 77 % 58 % 1019,9 hPa 0,0 l/m 2,4 km/h (1 Bft) NO 45 -8,6 C -5,2 C 0,0 km/h (0 Bft)
11.12.2019 02:54 -5,2 C -5,9 C 21,8 C 77 % 58 % 1019,9 hPa 0,0 l/m 2,9 km/h (1 Bft) O-NO 67 -8,6 C -5,2 C 2,9 km/h (1 Bft)
11.12.2019 02:52 -5,2 C -5,9 C 21,8 C 77 % 58 % 1019,9 hPa 0,0 l/m 2,9 km/h (1 Bft) O-NO 67 -8,6 C -5,2 C 3,9 km/h (1 Bft)
11.12.2019 02:50 -5,2 C -6,0 C 21,8 C 77 % 58 % 1019,9 hPa 0,0 l/m 2,4 km/h (1 Bft) O-NO 67 -8,6 C -5,2 C 5,3 km/h (1 Bft)
11.12.2019 02:48 -5,2 C -6,2 C 21,8 C 77 % 58 % 1019,9 hPa 0,0 l/m 2,2 km/h (1 Bft) O-NO 67 -8,6 C -5,2 C 5,3 km/h (1 Bft)
11.12.2019 02:46 -5,1 C -6,0 C 21,8 C 77 % 58 % 1019,9 hPa 0,0 l/m 1,7 km/h (1 Bft) NO 45 -8,5 C -5,1 C 4,1 km/h (1 Bft)
11.12.2019 02:44 -5,1 C -6,0 C 21,8 C 77 % 58 % 1019,9 hPa 0,0 l/m 1,4 km/h (1 Bft) NO 45 -8,5 C -5,1 C 2,9 km/h (1 Bft)
11.12.2019 02:42 -5,1 C -6,0 C 21,8 C 77 % 58 % 1019,9 hPa 0,0 l/m 1,2 km/h (1 Bft) NO 45 -8,5 C -5,1 C 0,0 km/h (0 Bft)
11.12.2019 02:40 -5,1 C -6,0 C 21,8 C 77 % 58 % 1019,9 hPa 0,0 l/m 1,4 km/h (1 Bft) NO 45 -8,5 C -5,1 C 4,3 km/h (1 Bft)
11.12.2019 02:38 -5,1 C -5,9 C 21,8 C 77 % 58 % 1019,9 hPa 0,0 l/m 1,2 km/h (1 Bft) NO 45 -8,5 C -5,1 C 4,3 km/h (1 Bft)
11.12.2019 02:36 -5,1 C -5,9 C 21,8 C 77 % 58 % 1019,9 hPa 0,0 l/m 0,5 km/h (0 Bft) NO 45 -8,5 C -5,1 C 3,1 km/h (1 Bft)
11.12.2019 02:34 -5,1 C -5,7 C 21,8 C 76 % 58 % 1019,9 hPa 0,0 l/m 0,5 km/h (0 Bft) O-NO 67 -8,7 C -5,1 C 2,4 km/h (1 Bft)
11.12.2019 02:32 -4,8 C -5,7 C 21,8 C 77 % 58 % 1019,9 hPa 0,0 l/m 0,7 km/h (0 Bft) N-NW 337 -8,2 C -4,8 C 0,0 km/h (0 Bft)
11.12.2019 02:30 -4,8 C -5,9 C 21,8 C 77 % 58 % 1019,9 hPa 0,0 l/m 0,5 km/h (0 Bft) W-NW 292 -8,2 C -4,8 C 0,0 km/h (0 Bft)
11.12.2019 02:28 -4,8 C -5,7 C 21,8 C 77 % 58 % 1019,9 hPa 0,0 l/m 0,5 km/h (0 Bft) S 180 -8,2 C -4,8 C 0,0 km/h (0 Bft)
11.12.2019 02:26 -4,8 C -5,6 C 21,8 C 77 % 58 % 1019,9 hPa 0,0 l/m 1,0 km/h (0 Bft) NO 45 -8,2 C -4,8 C 0,0 km/h (0 Bft)
11.12.2019 02:24 -4,8 C -5,6 C 21,8 C 77 % 58 % 1019,9 hPa 0,0 l/m 1,7 km/h (1 Bft) NO 45 -8,2 C -4,8 C 2,4 km/h (1 Bft)
11.12.2019 02:22 -4,7 C -5,6 C 21,8 C 76 % 58 % 1019,9 hPa 0,0 l/m 2,2 km/h (1 Bft) NO 45 -8,3 C -4,7 C 2,4 km/h (1 Bft)
11.12.2019 02:20 -4,7 C -5,6 C 21,8 C 76 % 58 % 1019,9 hPa 0,0 l/m 2,2 km/h (1 Bft) O-NO 67 -8,3 C -4,7 C 0,0 km/h (0 Bft)
11.12.2019 02:18 -4,7 C -5,4 C 21,8 C 76 % 58 % 1019,9 hPa 0,0 l/m 2,2 km/h (1 Bft) O-NO 67 -8,3 C -4,7 C 2,9 km/h (1 Bft)
11.12.2019 02:16 -4,7 C -5,4 C 21,8 C 76 % 58 % 1020,1 hPa 0,0 l/m 2,2 km/h (1 Bft) NO 45 -8,3 C -4,7 C 5,1 km/h (1 Bft)
11.12.2019 02:14 -4,7 C -5,6 C 21,8 C 76 % 58 % 1020,1 hPa 0,0 l/m 1,7 km/h (1 Bft) NO 45 -8,3 C -4,7 C 5,1 km/h (1 Bft)
11.12.2019 02:12 -4,8 C -5,6 C 21,8 C 76 % 58 % 1020,1 hPa 0,0 l/m 1,7 km/h (1 Bft) NO 45 -8,4 C -4,8 C 4,1 km/h (1 Bft)
11.12.2019 02:10 -4,7 C -5,4 C 21,8 C 76 % 58 % 1020,1 hPa 0,0 l/m 1,9 km/h (1 Bft) O-NO 67 -8,3 C -4,7 C 0,0 km/h (0 Bft)
11.12.2019 02:08 -4,7 C -5,4 C 21,8 C 76 % 58 % 1020,1 hPa 0,0 l/m 2,9 km/h (1 Bft) NO 45 -8,3 C -4,7 C 0,0 km/h (0 Bft)
11.12.2019 02:06 -4,6 C -5,4 C 21,9 C 76 % 58 % 1020,1 hPa 0,0 l/m 3,6 km/h (1 Bft) N-NO 22 -8,2 C -4,6 C 3,6 km/h (1 Bft)
11.12.2019 02:04 -4,6 C -5,3 C 21,9 C 76 % 58 % 1020,1 hPa 0,0 l/m 3,9 km/h (1 Bft) NO 45 -8,2 C -4,6 C 4,1 km/h (1 Bft)
11.12.2019 02:02 -4,6 C -5,3 C 21,9 C 76 % 58 % 1020,1 hPa 0,0 l/m 3,1 km/h (1 Bft) N-NO 22 -8,2 C -4,6 C 4,6 km/h (1 Bft)
11.12.2019 02:00 -4,6 C -5,3 C 21,8 C 76 % 58 % 1020,1 hPa 0,0 l/m 2,9 km/h (1 Bft) NO 45 -8,2 C -4,6 C 5,3 km/h (1 Bft)
11.12.2019 01:58 -4,7 C -5,4 C 21,9 C 76 % 58 % 1020,1 hPa 0,0 l/m 2,7 km/h (1 Bft) NO 45 -8,3 C -4,7 C 5,3 km/h (1 Bft)
11.12.2019 01:56 -4,8 C -5,6 C 21,9 C 76 % 58 % 1020,4 hPa 0,0 l/m 2,2 km/h (1 Bft) NO 45 -8,4 C -4,8 C 4,8 km/h (1 Bft)
11.12.2019 01:54 -4,8 C -5,6 C 21,9 C 76 % 58 % 1020,4 hPa 0,0 l/m 2,2 km/h (1 Bft) NO 45 -8,4 C -4,8 C 2,9 km/h (1 Bft)
11.12.2019 01:52 -4,8 C -5,6 C 21,9 C 76 % 58 % 1020,4 hPa 0,0 l/m 2,4 km/h (1 Bft) O-NO 67 -8,4 C -4,8 C 4,1 km/h (1 Bft)
11.12.2019 01:50 -4,7 C -5,6 C 21,9 C 76 % 58 % 1020,4 hPa 0,0 l/m 2,4 km/h (1 Bft) NO 45 -8,3 C -4,7 C 4,1 km/h (1 Bft)
11.12.2019 01:48 -4,7 C -5,7 C 21,9 C 76 % 58 % 1020,4 hPa 0,0 l/m 2,4 km/h (1 Bft) NO 45 -8,3 C -4,7 C 3,6 km/h (1 Bft)
11.12.2019 01:46 -4,7 C -5,6 C 21,9 C 76 % 58 % 1020,4 hPa 0,0 l/m 1,7 km/h (1 Bft) NO 45 -8,3 C -4,7 C 4,1 km/h (1 Bft)
11.12.2019 01:44 -4,7 C -5,6 C 21,9 C 76 % 58 % 1020,4 hPa 0,0 l/m 1,2 km/h (1 Bft) NO 45 -8,3 C -4,7 C 4,1 km/h (1 Bft)
11.12.2019 01:42 -4,7 C -5,4 C 21,9 C 76 % 58 % 1020,4 hPa 0,0 l/m 0,7 km/h (0 Bft) N-NO 22 -8,3 C -4,7 C 0,0 km/h (0 Bft)
11.12.2019 01:40 -4,6 C -5,4 C 21,9 C 76 % 58 % 1020,4 hPa 0,0 l/m 0,7 km/h (0 Bft) NO 45 -8,2 C -4,6 C 3,9 km/h (1 Bft)
11.12.2019 01:38 -4,6 C -5,6 C 21,9 C 76 % 58 % 1020,4 hPa 0,0 l/m 0,5 km/h (0 Bft) NO 45 -8,2 C -4,6 C 3,9 km/h (1 Bft)
11.12.2019 01:36 -4,7 C -5,6 C 21,9 C 76 % 58 % 1020,6 hPa 0,0 l/m 0,0 km/h (0 Bft) O-NO 67 -8,3 C -4,7 C 0,0 km/h (0 Bft)
11.12.2019 01:34 -4,6 C -5,4 C 21,9 C 76 % 58 % 1020,6 hPa 0,0 l/m 0,0 km/h (0 Bft) O-NO 67 -8,2 C -4,6 C 0,0 km/h (0 Bft)
11.12.2019 01:32 -4,6 C -5,1 C 21,9 C 76 % 58 % 1020,6 hPa 0,0 l/m 0,0 km/h (0 Bft) S-SO 157 -8,2 C -4,6 C 0,0 km/h (0 Bft)
11.12.2019 01:30 -4,6 C -5,1 C 21,9 C 76 % 58 % 1020,6 hPa 0,0 l/m 0,2 km/h (0 Bft) O-NO 67 -8,2 C -4,6 C 0,0 km/h (0 Bft)
11.12.2019 01:28 -4,5 C -5,3 C 21,9 C 76 % 58 % 1020,6 hPa 0,0 l/m 1,0 km/h (0 Bft) O-NO 67 -8,1 C -4,5 C 0,0 km/h (0 Bft)
11.12.2019 01:26 -4,5 C -5,1 C 21,9 C 76 % 58 % 1020,6 hPa 0,0 l/m 2,2 km/h (1 Bft) S-SO 157 -8,1 C -4,5 C 0,0 km/h (0 Bft)
11.12.2019 01:24 -4,3 C -5,0 C 21,9 C 76 % 58 % 1020,6 hPa 0,0 l/m 3,1 km/h (1 Bft) W-SW 247 -7,9 C -4,3 C 0,0 km/h (0 Bft)
11.12.2019 01:22 -4,3 C -5,0 C 21,9 C 76 % 58 % 1020,6 hPa 0,0 l/m 4,1 km/h (1 Bft) W-SW 247 -7,9 C -4,3 C 3,1 km/h (1 Bft)
11.12.2019 01:20 -4,3 C -5,0 C 21,9 C 76 % 58 % 1020,6 hPa 0,0 l/m 5,3 km/h (1 Bft) N-NO 22 -7,9 C -4,3 C 3,6 km/h (1 Bft)
11.12.2019 01:18 -4,3 C -4,7 C 21,9 C 76 % 58 % 1020,6 hPa 0,0 l/m 5,6 km/h (1 Bft) NO 45 -7,9 C -4,3 C 6,3 km/h (2 Bft)
11.12.2019 01:16 -4,3 C -4,7 C 21,9 C 76 % 58 % 1020,9 hPa 0,0 l/m 6,0 km/h (2 Bft) N-NO 22 -7,9 C -4,3 C 6,3 km/h (2 Bft)
11.12.2019 01:14 -4,2 C -4,7 C 21,9 C 76 % 58 % 1020,9 hPa 0,0 l/m 6,3 km/h (2 Bft) NO 45 -7,8 C -4,2 C 8,2 km/h (2 Bft)
11.12.2019 01:12 -4,2 C -4,8 C 21,9 C 76 % 58 % 1020,9 hPa 0,0 l/m 6,0 km/h (2 Bft) NO 45 -7,8 C -4,2 C 8,2 km/h (2 Bft)
11.12.2019 01:10 -4,2 C -4,8 C 21,9 C 76 % 58 % 1020,9 hPa 0,0 l/m 5,6 km/h (1 Bft) NO 45 -7,8 C -4,2 C 5,3 km/h (1 Bft)
11.12.2019 01:08 -4,2 C -4,7 C 21,9 C 76 % 58 % 1020,9 hPa 0,0 l/m 5,6 km/h (1 Bft) NO 45 -7,8 C -4,2 C 8,2 km/h (2 Bft)
11.12.2019 01:06 -4,2 C -4,8 C 21,9 C 76 % 58 % 1020,9 hPa 0,0 l/m 5,6 km/h (1 Bft) NO 45 -7,8 C -4,2 C 6,8 km/h (2 Bft)
11.12.2019 01:04 -4,3 C -5,0 C 21,9 C 76 % 58 % 1020,9 hPa 0,0 l/m 5,3 km/h (1 Bft) NO 45 -7,9 C -4,3 C 6,8 km/h (2 Bft)
11.12.2019 01:02 -4,2 C -5,0 C 21,9 C 76 % 58 % 1020,9 hPa 0,0 l/m 5,3 km/h (1 Bft) NO 45 -7,8 C -4,2 C 5,8 km/h (2 Bft)
11.12.2019 01:00 -4,2 C -5,0 C 21,9 C 76 % 58 % 1020,9 hPa 0,0 l/m 5,3 km/h (1 Bft) NO 45 -7,8 C -4,2 C 5,8 km/h (2 Bft)
11.12.2019 00:58 -4,2 C -5,1 C 21,9 C 76 % 58 % 1020,9 hPa 0,0 l/m 4,6 km/h (1 Bft) NO 45 -7,8 C -4,2 C 7,2 km/h (2 Bft)
11.12.2019 00:56 -4,2 C -5,0 C 21,9 C 76 % 58 % 1020,9 hPa 0,0 l/m 4,1 km/h (1 Bft) N-NO 22 -7,8 C -4,2 C 5,8 km/h (2 Bft)
11.12.2019 00:54 -4,2 C -5,0 C 21,9 C 76 % 58 % 1020,9 hPa 0,0 l/m 3,9 km/h (1 Bft) N-NO 22 -7,8 C -4,2 C 5,8 km/h (2 Bft)
11.12.2019 00:52 -4,2 C -5,1 C 21,9 C 76 % 58 % 1020,9 hPa 0,0 l/m 3,4 km/h (1 Bft) NO 45 -7,8 C -4,2 C 7,2 km/h (2 Bft)
11.12.2019 00:50 -4,3 C -5,1 C 21,9 C 76 % 58 % 1020,9 hPa 0,0 l/m 3,1 km/h (1 Bft) NO 45 -7,9 C -4,3 C 7,2 km/h (2 Bft)
11.12.2019 00:48 -4,3 C -5,3 C 21,9 C 76 % 58 % 1020,9 hPa 0,0 l/m 2,9 km/h (1 Bft) NO 45 -7,9 C -4,3 C 3,9 km/h (1 Bft)
11.12.2019 00:46 -4,3 C -5,4 C 21,9 C 76 % 58 % 1020,9 hPa 0,0 l/m 3,4 km/h (1 Bft) NO 45 -7,9 C -4,3 C 3,9 km/h (1 Bft)
11.12.2019 00:44 -4,3 C -5,3 C 21,9 C 76 % 58 % 1020,9 hPa 0,0 l/m 3,4 km/h (1 Bft) O-NO 67 -7,9 C -4,3 C 5,3 km/h (1 Bft)
11.12.2019 00:42 -4,3 C -5,3 C 21,9 C 76 % 58 % 1020,9 hPa 0,0 l/m 3,6 km/h (1 Bft) NO 45 -7,9 C -4,3 C 5,3 km/h (1 Bft)
11.12.2019 00:40 -4,3 C -5,1 C 21,9 C 76 % 58 % 1020,9 hPa 0,0 l/m 2,9 km/h (1 Bft) O-NO 67 -7,9 C -4,3 C 3,4 km/h (1 Bft)
11.12.2019 00:38 -4,3 C -5,0 C 21,9 C 75 % 58 % 1020,9 hPa 0,0 l/m 2,7 km/h (1 Bft) NO 45 -8,0 C -4,3 C 5,8 km/h (2 Bft)
11.12.2019 00:36 -4,3 C -5,0 C 21,9 C 75 % 58 % 1021,0 hPa 0,0 l/m 1,9 km/h (1 Bft) NO 45 -8,0 C -4,3 C 5,3 km/h (1 Bft)
11.12.2019 00:34 -4,2 C -5,0 C 21,9 C 75 % 58 % 1021,0 hPa 0,0 l/m 1,0 km/h (0 Bft) NO 45 -8,0 C -4,2 C 4,6 km/h (1 Bft)
11.12.2019 00:32 -4,2 C -5,1 C 21,9 C 75 % 58 % 1021,0 hPa 0,0 l/m 0,5 km/h (0 Bft) NO 45 -8,0 C -4,2 C 4,6 km/h (1 Bft)
11.12.2019 00:30 -4,2 C -5,1 C 21,9 C 75 % 58 % 1021,0 hPa 0,0 l/m 0,0 km/h (0 Bft) NO 45 -8,0 C -4,2 C 0,0 km/h (0 Bft)
11.12.2019 00:28 -4,1 C -5,3 C 21,9 C 75 % 58 % 1021,0 hPa 0,0 l/m 0,0 km/h (0 Bft) N-NO 22 -7,9 C -4,1 C 0,0 km/h (0 Bft)
11.12.2019 00:26 -4,1 C -5,3 C 22,0 C 75 % 58 % 1021,0 hPa 0,0 l/m 0,0 km/h (0 Bft) SW 225 -7,9 C -4,1 C 0,0 km/h (0 Bft)
11.12.2019 00:24 -4,1 C -5,3 C 22,0 C 76 % 58 % 1021,0 hPa 0,0 l/m 0,2 km/h (0 Bft) NW 315 -7,7 C -4,1 C 0,0 km/h (0 Bft)
11.12.2019 00:22 -3,9 C -5,3 C 21,9 C 76 % 58 % 1021,0 hPa 0,0 l/m 0,5 km/h (0 Bft) W-NW 292 -7,5 C -3,9 C 0,0 km/h (0 Bft)
11.12.2019 00:20 -3,9 C -5,1 C 21,9 C 76 % 58 % 1021,0 hPa 0,0 l/m 1,2 km/h (1 Bft) W-NW 292 -7,5 C -3,9 C 0,0 km/h (0 Bft)
11.12.2019 00:18 -3,8 C -5,0 C 21,9 C 76 % 58 % 1021,0 hPa 0,0 l/m 1,7 km/h (1 Bft) W-NW 292 -7,4 C -3,8 C 0,0 km/h (0 Bft)
11.12.2019 00:16 -3,8 C -5,1 C 22,0 C 76 % 58 % 1021,1 hPa 0,0 l/m 1,9 km/h (1 Bft) N-NO 22 -7,4 C -3,8 C 2,9 km/h (1 Bft)
11.12.2019 00:14 -3,8 C -5,0 C 22,0 C 76 % 58 % 1021,1 hPa 0,0 l/m 2,7 km/h (1 Bft) NO 45 -7,4 C -3,8 C 3,9 km/h (1 Bft)
11.12.2019 00:12 -3,7 C -5,0 C 22,0 C 75 % 58 % 1021,1 hPa 0,0 l/m 3,1 km/h (1 Bft) N-NO 22 -7,5 C -3,7 C 5,3 km/h (1 Bft)
11.12.2019 00:10 -3,5 C -4,5 C 22,0 C 75 % 58 % 1021,1 hPa 0,0 l/m 4,8 km/h (1 Bft) NO 45 -7,3 C -3,5 C 5,3 km/h (1 Bft)
11.12.2019 00:08 -3,5 C -4,5 C 22,0 C 75 % 58 % 1021,1 hPa 0,0 l/m 4,8 km/h (1 Bft) NO 45 -7,3 C -3,5 C 5,3 km/h (1 Bft)
11.12.2019 00:06 -3,5 C -4,5 C 22,0 C 75 % 58 % 1021,1 hPa 0,0 l/m 4,8 km/h (1 Bft) NO 45 -7,3 C -3,5 C 5,3 km/h (1 Bft)
11.12.2019 00:04 -3,5 C -4,5 C 22,0 C 75 % 58 % 1021,1 hPa 0,0 l/m 4,8 km/h (1 Bft) NO 45 -7,3 C -3,5 C 5,3 km/h (1 Bft)
11.12.2019 00:02 -3,5 C -4,5 C 22,0 C 75 % 58 % 1021,1 hPa 0,0 l/m 4,8 km/h (1 Bft) NO 45 -7,3 C -3,5 C 5,3 km/h (1 Bft)
11.12.2019 00:00 -3,5 C -4,5 C 22,0 C 75 % 58 % 1021,1 hPa 0,0 l/m 4,8 km/h (1 Bft) NO 45 -7,3 C -3,5 C 4,8 km/h (1 Bft)
_ Min-Zeit 08:14 04:30 03:26 14:06 00:00 19:58 - 00:26 - - 08:14 08:14 00:18
Minimum _ -6,7 C -7,0 C 21,7 C 60 % 58 % 1009,8 hPa - 0,0 km/h (0 Bft) - - -9,9 C -6,7 C 0,0 km/h (0 Bft)
_ Max-Zeit 13:18 12:48 00:00 09:42 12:52 00:00 00:00 18:56 - - 12:20 13:18 14:18
Maximum _ 4,1 C 10,9 C 22,0 C 80 % 59 % 1021,1 hPa 0,0 l/m 9,9 km/h
O-NO (2 Bft)
- - -1,5 C 4,1 C 16,2 km/h
SO (3 Bft)
Durchschnitt _ -2,5 C -2,7 C 21,8 C 74 % 58 % 1015,9 hPa #0,0 l/m 3,0 km/h (1 Bft) NO - -6,7 C -2,8 C 4,2 km/h (1 Bft)